GFSCGP_prec_cthk_000.txt.gz
RH
14 15 17 18 19 21 24 32 37 35 37 43 45 46 44 41 38 37 27 28 31 30 30 29 31 29 28 27 28 29 28 26 24 23 24 25 25 26 28 30 30 29 39 37
12 14 15 16 20 23 29 32 36 37 38 38 44 47 44 41 29 33 39 36 35 34 34 30 28 27 26 26 26 26 22 22 19 20 19 17 17 16 19 21 21 28 30 32
11 10 15 16 22 27 30 33 35 33 38 43 48 53 49 43 47 50 50 39 36 32 32 32 32 28 25 26 22 22 22 21 22 19 18 17 17 15 14 15 17 25 24 22
11 10 15 18 19 23 29 27 25 27 35 48 42 55 47 42 45 47 50 48 40 28 27 31 31 30 28 25 25 23 23 23 23 21 18 20 22 20 14 16 20 22 21 16
10 9 15 17 18 21 24 22 21 23 29 37 42 50 39 46 42 40 45 47 47 41 38 30 29 28 29 29 26 23 21 25 27 26 18 19 23 20 19 17 17 17 15 15
8 8 13 14 18 19 21 20 20 23 28 39 36 43 45 42 33 34 40 43 43 44 42 35 32 30 25 31 28 26 23 28 31 28 24 23 21 20 23 23 19 16 14 13
10 10 9 14 16 17 20 21 23 22 29 28 26 37 30 32 30 30 35 38 39 38 41 37 38 33 32 33 34 33 30 32 34 32 32 24 23 20 24 28 28 20 13 15
13 14 11 14 16 16 19 21 24 24 29 25 23 23 20 26 27 30 37 36 34 32 35 35 42 41 38 42 41 36 30 32 34 33 36 29 29 26 26 28 29 28 24 18
15 14 13 14 14 15 16 19 19 22 24 28 25 26 25 27 31 33 34 37 34 35 38 36 38 41 45 44 43 36 32 31 36 36 32 31 32 30 26 32 35 32 31 21
13 14 13 14 16 16 16 14 19 23 26 29 31 31 32 34 33 33 35 35 34 37 36 36 32 29 31 33 38 42 40 33 36 37 36 35 33 33 30 34 37 34 32 26
11 14 13 17 18 18 20 19 21 22 26 30 32 32 27 30 32 35 35 33 35 35 33 32 30 31 29 30 33 41 44 42 42 44 41 46 42 34 33 36 37 35 32 30
11 15 16 16 18 19 21 19 23 27 26 27 30 31 28 29 31 32 33 32 30 33 32 31 31 31 31 31 31 36 43 47 45 51 49 50 46 37 38 42 40 36 35 31
13 16 18 20 21 21 21 22 23 26 27 28 31 32 27 29 31 29 31 29 28 30 32 31 34 36 31 29 30 31 36 43 45 52 54 50 50 46 43 45 44 41 38 31
17 16 17 19 23 22 21 22 24 24 28 28 28 26 28 29 32 32 30 30 30 29 31 34 35 34 28 27 30 31 33 38 44 51 52 51 49 50 50 44 45 40 38 33
18 18 20 22 23 23 21 21 23 24 23 26 24 26 29 28 27 28 30 34 32 33 34 33 34 33 31 29 31 36 43 38 46 49 55 54 54 53 51 48 45 42 37 33
20 19 19 21 23 22 23 22 24 24 24 27 27 27 27 27 30 32 32 33 31 34 35 34 31 32 30 34 35 31 36 44 46 54 56 61 66 62 61 53 46 42 35 36
22 22 22 24 23 23 27 24 24 27 31 28 29 23 25 28 29 30 32 35 35 36 35 35 35 35 37 39 38 35 40 48 53 52 58 73 70 66 56 51 43 39 37 41
26 23 23 26 23 26 24 29 26 30 31 32 27 25 25 27 29 31 32 31 33 36 36 33 31 28 32 32 33 34 37 44 61 64 66 62 65 62 53 49 42 42 43 43
31 29 36 28 26 23 24 29 31 35 33 32 28 26 26 28 30 32 33 36 36 35 35 34 32 31 21 20 21 28 34 48 57 56 62 65 65 57 52 48 43 43 46 54
32 33 33 39 29 28 29 31 28 28 40 36 33 33 33 33 35 36 34 36 35 40 39 40 34 28 22 20 23 22 30 41 49 56 60 63 61 58 53 45 45 47 53 73
44 40 44 47 44 36 33 31 28 34 39 36 36 38 41 41 44 45 41 42 42 44 42 40 37 33 28 24 18 25 33 42 51 60 62 63 61 60 62 52 53 54 74 78
57 61 61 52 42 42 38 36 38 40 38 39 41 45 47 48 47 44 45 46 46 47 47 46 39 34 26 23 24 30 38 47 57 67 69 68 76 80 85 66 59 71 73 65
63 70 71 71 69 57 49 48 44 42 42 44 46 44 46 45 52 50 49 50 51 50 41 43 40 35 36 33 34 44 63 69 68 74 78 66 75 87 87 94 78 69 64 64
52 60 68 68 67 65 56 51 56 54 52 47 50 51 48 47 45 43 45 49 48 45 39 38 37 39 34 41 46 55 64 73 75 78 79 79 70 74 78 74 67 66 57 50
57 63 59 72 62 65 64 61 54 55 52 54 58 60 58 55 55 53 50 55 51 48 45 41 42 39 46 60 68 65 63 64 73 78 75 71 71 63 64 61 52 43 46 43
60 67 70 68 56 58 58 54 53 52 54 55 56 55 54 50 54 48 53 53 55 52 45 44 47 59 63 71 74 70 68 68 77 74 74 75 70 65 60 51 53 50 50 52

GFSCGP_prec_cthk_003.txt.gz
RH
16 17 18 19 24 25 36 39 36 34 37 41 44 46 47 48 36 31 26 25 28 30 29 30 31 33 31 30 29 30 31 32 30 28 30 29 30 32 32 32 35 36 33 34
15 16 16 20 24 27 32 31 37 38 39 44 47 49 43 47 38 35 32 29 27 29 29 28 28 31 29 29 28 28 28 28 24 20 20 22 22 20 21 24 25 25 25 27
13 14 17 17 22 27 29 27 31 34 41 46 50 56 50 48 43 44 45 41 37 32 31 28 27 29 28 28 28 29 26 23 20 18 19 21 20 17 16 18 18 18 26 27
12 14 17 18 20 23 23 24 29 33 41 46 42 56 52 48 46 47 45 45 41 30 28 26 27 29 28 27 28 25 25 25 24 24 19 18 20 20 18 15 16 20 22 20
11 13 15 18 17 21 24 28 29 30 31 38 43 49 46 50 48 40 40 45 46 41 41 36 27 28 28 26 26 23 24 28 29 29 25 19 19 22 23 23 23 20 18 16
10 12 14 15 14 23 24 27 28 29 31 40 38 43 42 42 41 34 36 42 45 47 47 48 45 32 29 27 27 26 28 29 31 31 31 26 23 22 21 26 28 29 23 18
9 12 12 12 17 22 23 27 29 31 38 43 32 40 36 31 31 29 31 36 40 41 43 45 42 39 37 30 28 29 29 31 31 31 30 28 25 23 22 23 29 30 29 24
12 11 12 12 16 18 22 26 28 27 33 31 31 42 28 25 29 30 33 35 38 38 38 36 37 38 40 39 37 34 33 33 30 32 31 32 31 26 26 27 30 32 31 31
13 12 9 12 15 16 22 25 22 25 28 29 28 26 22 25 26 30 31 33 34 34 36 33 34 41 50 55 47 43 36 31 29 36 36 36 37 35 29 31 32 35 33 32
11 12 9 9 15 16 21 21 24 26 26 27 27 25 26 25 28 31 31 32 32 32 33 33 36 33 39 41 42 40 40 39 35 34 39 38 42 39 45 39 34 36 40 36
11 13 10 11 13 14 20 20 21 22 24 25 23 23 23 25 26 28 30 29 31 32 31 32 31 26 28 30 34 38 42 48 47 44 41 41 42 47 53 46 39 37 37 37
16 14 14 12 12 15 18 17 18 19 21 25 24 22 22 26 28 31 31 31 31 30 28 32 32 28 30 28 29 32 38 45 54 52 51 48 51 50 57 54 50 40 36 38
19 16 16 16 15 17 17 19 19 22 23 28 26 26 22 25 29 29 31 30 29 29 29 30 35 32 32 27 27 29 34 38 44 50 55 54 56 57 59 57 52 51 38 39
21 17 12 13 14 17 18 20 23 23 26 27 27 24 24 24 27 26 25 27 27 27 28 30 32 32 34 33 31 33 32 36 41 44 50 51 57 56 59 55 54 50 44 44
24 22 18 9 14 18 19 20 23 23 22 23 24 26 24 26 25 24 25 27 24 23 26 29 30 31 33 31 32 34 36 36 42 44 48 53 62 61 64 56 57 53 50 47
24 22 22 14 16 19 20 21 24 24 24 24 25 25 24 24 26 27 28 26 26 26 27 30 33 32 32 32 31 30 37 32 35 44 50 55 73 67 65 61 61 54 52 49
29 23 24 21 18 20 24 25 25 24 24 24 26 23 25 28 28 27 27 27 27 29 29 32 34 34 34 35 33 35 37 41 43 37 57 70 53 74 71 67 72 53 52 52
38 26 25 20 21 25 26 26 25 29 28 28 29 26 27 27 26 25 27 28 30 31 35 37 37 36 35 30 29 32 29 35 42 53 53 80 81 74 72 67 61 56 56 58
45 36 33 29 25 23 33 31 30 29 32 31 31 29 27 25 26 27 29 30 33 36 38 39 35 35 31 30 29 28 31 31 32 34 44 79 81 72 68 66 59 56 57 66
46 43 34 38 27 31 33 37 33 32 36 35 31 34 31 28 27 30 32 35 40 41 40 41 40 37 35 33 35 30 27 31 35 42 55 64 74 72 65 64 51 57 63 71
52 51 49 44 42 38 42 41 36 37 37 34 32 33 29 31 33 33 36 38 41 43 44 44 43 43 40 39 40 33 32 29 35 45 50 65 71 65 67 68 61 67 80 81
57 61 64 57 47 45 42 41 42 44 40 38 36 34 35 36 36 40 41 42 43 44 45 46 47 45 47 45 44 42 34 32 43 52 64 68 68 71 71 70 71 73 74 84
63 63 72 67 60 53 47 44 45 43 38 37 37 39 39 38 38 41 43 45 48 42 47 45 44 46 48 48 42 47 45 44 48 53 61 68 74 76 76 81 79 79 72 69
52 61 70 64 60 59 52 49 48 49 46 44 42 40 39 39 39 44 47 48 46 46 50 50 49 50 44 41 49 59 56 54 64 69 75 80 80 80 84 81 88 71 66 62
58 58 66 68 69 61 54 55 54 55 54 52 53 53 51 52 49 49 53 55 59 57 57 50 52 51 50 51 59 62 65 74 81 81 87 77 80 85 79 80 77 70 64 70
66 68 65 63 58 60 61 60 57 57 56 54 55 54 53 53 52 53 47 49 58 44 48 50 48 52 53 54 60 55 91 84 74 78 73 74 84 81 75 56 57 59 62 60

GFSCGP_prec_cthk_006.txt.gz
RH
14 17 20 24 25 26 30 38 38 44 44 45 49 52 54 50 44 39 31 25 24 23 23 28 31 33 31 31 33 31 32 34 35 29 28 30 29 32 34 32 34 34 35 37
13 15 20 26 27 26 28 35 40 45 44 50 53 54 53 53 46 41 37 28 25 24 26 28 31 33 31 28 28 30 31 31 27 25 25 27 30 30 29 27 26 27 29 29
12 15 21 25 27 26 27 26 34 40 47 49 53 55 55 55 51 46 44 41 38 30 29 29 27 27 27 26 25 27 28 27 23 23 23 25 26 22 19 17 17 20 20 22
13 16 21 22 26 27 27 23 31 37 41 46 46 50 54 52 51 45 40 41 40 38 30 27 25 24 25 25 27 27 27 24 24 24 24 23 22 22 21 19 18 17 16 19
14 16 19 22 21 23 24 26 31 37 40 42 47 47 37 49 53 44 38 40 38 40 36 37 34 30 25 26 26 27 25 24 27 29 27 26 23 24 25 25 25 24 25 23
14 15 18 18 21 23 22 30 34 35 39 46 37 39 34 45 39 39 39 39 40 38 39 35 39 37 32 28 27 25 26 26 29 34 33 30 26 24 23 24 24 24 27 26
14 13 18 19 21 23 22 29 33 33 45 46 36 42 28 29 33 30 34 35 39 43 40 37 43 39 32 26 27 25 25 27 30 33 31 29 28 28 25 24 25 28 29 28
14 14 15 18 20 24 21 27 31 33 38 39 40 41 27 23 29 33 34 35 37 37 40 38 40 41 44 38 34 31 29 29 34 32 30 30 31 30 32 29 27 30 31 31
13 12 12 17 19 21 21 25 27 33 33 33 36 28 22 23 25 29 32 34 34 35 34 34 35 37 40 45 45 42 37 34 30 31 33 35 34 37 37 39 41 41 32 32
12 11 9 12 17 20 22 21 27 32 33 34 32 27 26 22 22 22 29 30 31 33 32 32 35 37 40 42 44 47 44 36 34 35 33 32 34 37 40 41 46 49 43 36
23 16 11 10 11 15 20 21 25 28 32 32 30 29 23 21 21 22 25 26 28 30 29 29 31 31 30 36 38 38 38 38 37 37 38 42 60 48 46 42 46 52 52 50
27 24 17 13 11 11 14 17 20 25 28 33 29 24 19 18 19 23 26 24 28 29 28 28 28 28 29 28 29 32 36 43 39 44 46 60 36 65 46 47 54 53 56 50
34 29 23 16 16 14 14 16 19 24 27 32 29 24 17 19 24 27 27 26 29 30 28 29 31 30 29 26 29 34 39 42 43 47 56 59 57 53 58 52 57 54 59 48
39 33 25 18 12 14 15 16 21 20 28 27 25 18 16 20 23 26 26 26 27 27 27 28 31 32 29 31 33 33 34 38 44 45 51 59 63 63 71 58 56 57 60 52
34 29 24 16 14 14 15 14 17 18 19 21 16 20 20 21 23 24 23 25 26 25 26 28 28 30 29 31 32 34 36 35 37 39 39 44 49 58 60 61 68 69 61 59
41 27 22 19 17 15 17 17 17 17 21 20 21 23 21 21 26 24 24 26 24 22 22 23 26 28 30 32 32 34 37 37 36 40 36 42 55 65 72 81 84 69 62 62
50 37 28 23 21 18 20 17 18 20 22 21 25 22 23 25 26 24 24 25 23 22 23 25 27 28 32 34 35 37 39 42 47 44 45 50 57 62 78 95 88 82 69 67
58 46 43 27 28 31 16 17 18 21 24 25 24 24 25 24 23 25 27 25 24 25 28 30 32 34 37 36 37 35 33 32 33 35 42 56 59 68 72 76 77 84 77 61
65 56 49 38 31 26 28 27 26 25 29 30 28 27 27 25 25 27 28 27 28 30 32 37 40 47 37 32 32 34 33 33 33 34 35 38 54 61 72 78 73 87 76 59
65 65 57 44 33 36 30 31 30 30 36 35 33 30 29 28 29 31 28 27 29 33 38 41 43 41 45 35 34 40 39 38 36 39 37 43 49 60 70 83 78 81 74 65
77 72 66 57 42 39 39 37 35 35 35 40 35 32 31 32 31 32 29 28 31 34 37 40 46 46 43 41 39 40 42 42 43 46 52 48 49 58 68 78 86 83 72 71
66 82 83 72 52 43 42 38 33 36 44 41 38 35 33 36 36 34 34 31 32 34 37 40 41 46 47 45 46 50 48 54 45 47 56 55 53 61 73 84 90 84 79 80
67 72 78 73 62 56 50 48 45 42 39 40 40 38 38 37 36 36 34 36 38 39 41 42 43 45 45 47 45 50 49 53 54 60 64 62 67 67 79 84 86 88 88 83
73 63 73 72 65 60 53 49 49 46 43 43 44 42 42 44 44 45 45 46 46 47 49 51 53 53 55 45 47 52 54 56 62 65 74 78 81 79 81 80 80 85 84 79
75 70 62 72 71 64 58 56 54 50 48 50 48 50 49 47 50 51 51 53 51 50 49 49 47 46 43 42 45 55 54 59 65 63 67 72 73 78 79 79 78 86 82 69
78 74 61 59 60 61 66 73 63 61 58 55 54 54 51 49 50 50 47 46 47 44 41 39 45 42 35 34 37 41 40 44 52 56 57 64 75 74 66 61 64 63 56 55

GFSCGP_prec_cthk_009.txt.gz
RH
11 14 16 21 25 24 27 33 36 42 43 44 47 48 51 52 51 48 34 30 27 23 25 28 29 31 32 31 28 28 29 31 40 34 34 33 32 35 34 36 38 40 38 35
9 11 18 23 25 25 27 34 36 42 45 45 49 48 49 52 52 48 45 37 28 26 28 26 30 30 30 30 29 28 28 29 31 33 27 26 25 25 25 25 23 24 27 29
8 9 18 22 24 25 26 27 35 37 46 48 49 46 49 49 52 51 47 41 39 32 25 24 29 29 29 28 27 27 26 24 25 25 24 23 22 20 20 22 21 21 23 23
9 9 16 20 23 24 22 22 28 38 43 45 47 40 44 48 50 47 43 41 38 37 31 28 28 28 26 25 26 27 28 25 23 25 25 25 24 27 27 24 21 21 23 18
10 8 15 18 20 25 24 25 27 33 42 42 43 42 35 43 45 43 42 38 37 33 33 33 33 26 25 23 24 26 27 26 25 25 27 26 26 28 26 24 22 22 23 23
12 9 12 17 23 26 29 29 29 34 42 41 32 35 28 35 31 33 41 40 37 36 32 33 31 33 35 32 28 25 25 25 26 27 28 27 25 25 24 24 24 26 26 27
14 12 12 14 25 29 29 32 35 35 41 35 31 36 25 25 27 29 35 40 40 39 38 32 31 29 35 32 28 24 24 24 26 28 31 30 29 29 27 25 26 26 27 27
18 16 12 15 20 26 28 28 32 38 35 32 36 32 23 25 24 26 31 37 41 39 38 38 33 28 31 33 27 25 22 24 27 32 34 30 32 32 31 33 33 32 34 31
18 15 13 17 21 23 28 29 27 30 33 30 29 27 23 23 23 25 28 32 33 36 38 38 35 33 34 33 28 27 29 28 29 32 31 34 36 36 34 35 37 35 41 47
17 14 11 16 21 25 24 26 29 29 35 36 30 27 20 22 21 23 26 27 29 31 35 35 32 34 38 36 32 30 31 29 31 31 31 32 32 31 37 43 40 39 39 44
23 17 10 14 18 21 25 25 29 27 26 29 30 24 22 21 19 19 20 21 25 28 32 32 30 34 34 34 34 30 35 37 34 32 35 37 37 45 56 46 49 49 45 55
27 26 23 14 13 16 21 24 24 27 27 24 25 25 20 21 20 18 17 16 24 26 28 30 31 34 33 34 32 34 38 40 41 41 41 43 43 44 53 59 53 56 40 52
27 28 29 21 18 15 16 18 23 25 27 28 24 22 21 22 22 19 19 20 26 27 28 29 30 31 32 32 29 29 34 38 42 51 48 46 46 50 47 64 51 54 50 48
34 34 33 27 19 15 15 14 17 21 24 24 23 20 19 21 21 20 19 23 27 29 29 29 31 28 28 26 25 29 33 39 47 48 46 49 51 55 57 52 59 64 62 62
41 36 35 29 23 20 15 13 13 15 16 20 17 17 15 19 21 20 19 25 26 31 30 29 27 25 28 26 27 31 37 42 44 45 47 46 49 54 60 69 76 82 77 83
44 42 39 32 29 30 19 13 13 14 13 17 15 17 14 17 18 20 22 26 25 26 26 26 26 24 26 29 28 32 37 39 40 44 42 44 49 50 57 66 67 79 87 79
51 50 51 41 30 27 26 18 14 14 14 14 15 14 14 14 18 21 23 26 26 25 24 22 22 23 27 31 32 36 35 35 39 41 41 43 45 50 58 63 71 75 82 88
55 54 55 51 40 35 18 19 17 14 15 15 14 13 13 16 21 23 25 26 26 25 27 25 26 29 33 31 31 33 35 34 34 33 34 37 40 49 55 62 66 74 82 76
53 55 58 58 48 34 27 24 20 18 15 15 14 15 14 21 24 26 26 24 25 25 26 29 32 34 32 30 32 33 31 30 30 33 35 40 40 45 48 53 58 65 71 74
53 60 58 67 62 38 36 37 32 28 21 21 20 21 22 25 26 27 27 26 25 26 26 30 34 32 30 30 31 32 33 31 35 38 42 47 48 54 58 61 60 63 68 77
52 55 58 71 72 46 42 42 36 30 24 24 25 25 28 31 32 31 32 30 29 28 31 32 34 34 33 34 35 38 39 36 40 46 49 50 53 55 52 58 61 66 74 85
47 51 69 81 75 56 47 46 40 35 34 31 30 34 34 35 34 33 35 33 31 30 31 33 36 35 36 37 40 42 40 42 46 50 49 50 52 57 56 58 65 73 80 83
50 43 56 85 78 67 57 55 47 44 40 42 41 35 40 40 40 40 39 37 35 35 33 35 35 37 39 43 44 43 44 47 48 48 50 53 59 63 62 62 66 77 87 80
54 48 50 65 73 81 66 57 50 48 47 48 43 43 41 42 47 45 43 41 40 41 40 39 41 43 45 45 47 48 49 55 48 47 60 62 62 63 66 61 65 76 83 79
68 66 58 64 70 79 70 66 60 54 51 49 47 47 46 48 50 49 49 47 45 44 43 44 42 42 45 46 48 49 51 55 52 55 57 53 50 57 59 56 64 70 73 71
81 79 74 69 71 78 78 73 65 60 58 57 54 54 53 48 54 50 47 45 45 48 49 48 48 49 48 45 41 38 44 47 49 50 50 48 48 53 57 60 59 64 62 71

GFSCGP_prec_cthk_012.txt.gz
RH
8 12 16 21 23 25 31 34 36 37 42 44 44 44 41 45 47 43 36 30 27 25 26 30 29 29 31 32 33 32 31 32 45 55 49 47 46 44 45 45 41 39 39 40
8 10 14 20 24 25 27 32 33 36 43 43 44 44 43 45 45 46 45 36 30 24 26 29 27 29 29 31 32 31 29 32 37 42 41 39 38 37 38 35 38 33 31 31
8 7 13 17 19 25 28 30 33 40 41 42 46 44 41 42 44 46 47 45 36 32 27 28 28 29 29 30 31 27 28 30 31 35 37 34 33 31 33 30 29 27 24 25
8 7 9 14 16 23 26 25 33 39 44 44 41 43 39 39 40 41 44 44 41 41 38 31 31 29 29 27 28 26 27 26 28 29 32 29 29 34 34 30 28 29 22 28
10 7 8 10 13 19 22 27 29 35 40 42 47 46 39 39 39 38 37 39 39 37 37 37 35 32 27 28 28 24 23 25 26 27 27 32 31 33 32 33 27 24 25 25
12 10 7 7 10 20 23 31 33 34 35 39 39 44 35 35 33 33 36 38 40 39 38 36 34 33 34 36 35 27 23 23 24 24 25 29 33 32 33 28 28 30 31 30
13 12 7 6 9 19 25 30 37 37 36 35 37 39 30 30 30 28 32 35 39 42 41 39 36 29 30 34 35 30 27 22 23 23 25 26 33 30 30 31 30 34 34 35
17 14 12 8 8 17 22 26 32 36 33 32 36 36 25 27 27 27 29 31 40 40 35 33 34 31 29 28 29 27 24 22 22 23 27 30 28 33 35 38 41 38 42 46
20 17 15 10 9 14 22 26 28 29 29 28 27 32 24 26 27 26 25 28 34 35 33 36 35 33 30 28 29 29 24 24 25 30 31 31 31 33 38 41 39 42 42 44
23 23 18 16 12 10 20 23 31 29 33 33 28 28 29 25 23 24 26 26 28 31 34 34 34 33 30 29 28 31 27 24 25 28 28 30 31 34 35 37 42 49 49 49
26 25 19 18 12 11 15 25 27 29 29 30 32 28 27 23 24 25 26 24 25 28 30 33 35 34 34 30 32 32 28 27 26 25 29 33 35 37 38 41 47 54 57 51
29 29 24 15 12 11 17 19 26 30 31 30 27 24 24 27 22 20 23 25 23 23 27 30 33 36 35 32 35 28 27 28 31 33 34 36 40 41 43 42 47 50 60 53
30 30 38 27 19 15 14 19 22 27 28 30 32 28 25 26 20 20 20 19 19 20 23 28 32 33 32 33 34 29 31 34 41 44 42 41 44 46 47 50 49 54 53 58
27 29 28 28 24 21 19 14 18 23 27 28 28 28 27 23 20 18 20 19 19 23 27 29 32 33 34 31 32 29 33 40 42 46 45 49 52 54 59 54 53 48 52 53
30 36 41 30 29 28 24 23 17 18 19 26 25 26 29 27 20 18 19 21 22 25 24 30 33 32 30 30 32 34 34 38 39 42 48 55 59 62 63 65 56 55 57 59
37 44 43 44 38 36 33 30 26 19 14 18 20 21 24 25 21 19 16 20 21 24 23 29 34 34 31 31 29 30 30 32 37 44 49 55 56 56 56 58 58 61 62 63
39 44 51 45 38 38 38 28 30 28 19 12 14 14 16 17 17 16 15 17 21 24 23 26 31 30 30 30 30 29 31 35 38 41 41 43 48 52 52 56 56 63 66 72
44 50 53 52 54 53 32 29 29 29 24 15 13 14 14 13 14 16 13 18 21 25 26 29 29 28 27 28 31 35 33 28 32 35 37 41 43 44 43 42 46 55 59 66
39 44 55 54 51 42 41 46 37 34 26 21 16 16 15 16 18 17 16 18 21 25 28 32 30 29 29 31 34 33 32 29 31 34 35 36 35 41 43 46 49 55 61 63
43 44 50 59 53 51 56 50 44 40 32 23 20 18 17 17 19 10 16 20 22 26 29 29 29 32 31 33 32 33 29 28 29 33 36 37 41 47 48 53 53 57 59 60
54 47 48 58 59 56 48 46 43 49 32 33 21 18 16 17 19 20 23 24 27 29 30 30 30 32 35 35 33 32 32 33 35 35 36 37 43 48 52 60 58 60 62 67
51 53 52 56 65 59 49 46 53 55 45 35 28 22 23 24 23 26 32 32 32 34 34 35 34 33 33 34 36 37 35 33 36 38 41 45 48 55 55 57 58 62 66 70
62 55 59 49 49 50 50 52 56 55 56 44 39 33 32 33 30 34 36 38 37 36 35 35 34 35 35 37 37 33 31 34 37 39 44 49 55 59 56 57 60 63 62 71
57 62 53 48 52 49 48 55 65 62 63 56 53 49 45 46 43 40 40 42 39 36 36 36 37 36 34 34 35 36 38 41 43 46 51 55 61 64 60 60 64 58 61 67
68 56 51 54 49 46 59 70 72 66 63 58 57 57 57 57 53 52 51 49 42 43 43 42 41 38 38 37 37 37 40 43 49 55 62 61 57 59 60 58 54 62 65 68
76 72 62 59 55 51 58 66 78 70 63 60 56 58 56 53 51 51 49 56 54 49 50 48 43 42 41 39 39 41 46 51 52 55 55 48 44 44 49 56 60 62 64 70

GFSCGP_prec_cthk_015.txt.gz
RH
7 10 15 21 23 25 28 29 29 33 36 32 40 46 39 42 42 42 37 29 28 26 29 33 31 33 33 35 35 32 33 33 33 48 55 56 53 50 50 46 54 42 42 42
8 8 11 21 24 25 27 28 27 33 34 38 39 43 44 43 42 43 40 34 29 29 28 30 32 30 31 33 34 30 31 30 29 43 45 46 50 44 43 39 40 41 41 36
8 6 8 15 23 25 27 26 26 29 36 46 39 45 41 44 43 41 42 44 35 31 28 28 30 28 30 31 29 28 28 29 31 35 41 48 47 39 43 39 38 32 31 32
10 8 7 10 15 21 25 26 27 27 39 46 35 36 42 36 43 40 40 40 41 39 36 36 32 31 29 30 32 30 28 27 30 34 39 42 40 36 36 35 38 36 29 27
11 9 9 7 9 16 20 25 27 27 30 45 33 33 35 40 37 40 37 39 40 40 41 39 37 38 32 31 34 32 29 28 28 28 33 38 36 34 39 36 35 29 29 27
11 12 9 8 9 14 17 25 27 25 27 34 37 36 35 43 37 40 39 38 39 41 40 42 42 42 39 38 36 37 32 26 23 27 27 29 39 35 38 38 34 30 31 28
13 12 13 9 10 10 15 22 27 28 27 28 31 31 45 34 33 35 35 40 40 38 37 37 39 38 35 33 37 41 37 29 27 25 25 24 29 35 36 36 33 34 35 37
16 15 13 11 9 10 11 15 22 30 27 26 26 30 28 36 33 33 33 31 37 41 37 37 35 33 35 36 32 34 33 29 28 29 25 26 30 36 32 35 38 36 40 43
17 18 16 13 11 9 10 13 18 23 24 26 24 25 30 33 34 33 32 30 33 41 39 35 31 34 36 29 28 30 32 27 25 27 25 30 34 32 35 37 37 44 47 55
16 22 20 15 14 11 9 11 18 24 28 29 23 24 28 29 32 32 32 30 32 37 38 34 34 34 37 33 30 28 32 28 24 27 28 31 32 34 35 40 42 45 51 52
17 19 23 24 15 12 11 9 17 21 24 25 27 26 22 28 34 29 30 27 30 35 37 36 34 34 38 36 30 30 31 30 27 25 26 27 33 39 36 36 41 43 47 59
19 21 25 22 22 19 16 13 15 22 27 25 24 22 24 24 28 28 28 28 30 31 35 34 36 35 33 35 35 30 31 28 25 23 24 30 35 37 40 40 46 47 44 50
25 23 28 32 22 19 15 12 13 15 23 28 27 24 24 28 26 28 29 26 26 34 38 34 32 35 33 35 35 31 30 27 28 29 30 34 34 35 38 45 45 50 49 47
28 32 25 28 26 20 19 17 15 15 17 22 26 26 26 25 27 28 27 26 29 30 26 26 29 30 32 33 36 32 30 28 31 34 39 38 38 36 42 47 50 53 54 50
20 26 30 26 32 28 19 16 15 15 18 20 21 25 27 27 28 27 28 26 24 26 27 24 26 27 30 33 36 33 31 30 34 36 39 39 40 42 44 48 52 54 56 55
23 24 27 32 30 28 26 24 20 19 16 17 19 21 22 24 31 31 27 24 23 25 29 24 26 30 33 34 36 35 33 33 35 38 37 38 43 44 48 54 56 57 55 59
26 33 30 31 37 36 32 26 26 24 22 21 20 16 20 24 26 27 29 30 24 22 23 26 26 28 32 35 37 37 38 36 34 35 36 39 41 43 50 53 55 56 58 60
28 33 40 42 42 46 32 33 29 28 27 28 25 22 19 18 21 26 27 28 23 18 17 23 26 30 33 39 38 38 38 33 33 31 33 39 45 50 51 51 49 47 53 56
37 38 44 44 41 42 39 44 45 43 38 30 27 30 26 21 19 20 16 17 19 20 19 29 28 31 36 37 36 36 35 31 30 31 34 39 43 46 46 46 46 47 51 58
43 50 54 48 46 45 40 53 59 46 38 31 36 34 29 23 20 18 15 15 18 23 22 27 29 31 35 36 35 35 32 33 36 38 39 39 38 40 43 46 47 49 58 60
34 39 41 48 49 40 50 48 49 56 41 46 40 34 34 30 22 21 28 22 23 22 20 26 29 34 37 38 36 36 36 37 37 37 36 37 39 41 44 45 49 56 62 64
34 37 42 47 47 45 57 50 51 58 50 45 43 39 30 31 29 34 35 34 26 23 22 24 29 35 39 37 38 41 39 38 35 37 39 41 41 42 47 48 53 58 64 66
39 38 43 47 45 58 52 58 46 42 46 48 44 42 41 37 41 42 34 31 31 35 32 32 36 41 39 39 43 43 41 39 41 42 43 42 44 46 47 51 57 61 65 64
60 50 50 63 72 67 67 58 49 41 47 51 54 49 50 49 45 42 38 40 41 43 45 46 47 51 44 44 45 41 39 42 44 45 44 44 46 48 51 56 62 66 58 55
73 84 66 70 74 61 54 47 43 46 49 51 59 63 63 61 57 56 53 54 52 52 50 49 46 48 42 41 41 42 43 45 45 41 43 47 50 53 58 61 61 61 51 50
95 98 80 83 67 56 52 49 50 52 59 57 67 73 76 71 70 64 66 64 62 59 52 46 45 41 42 42 43 44 46 47 47 48 49 51 54 57 57 57 58 53 52 54

GFSCGP_prec_cthk_018.txt.gz
RH
12 12 14 18 21 21 22 28 27 34 39 37 47 50 47 50 49 38 33 33 35 32 28 31 31 32 32 33 33 29 28 29 34 33 45 50 56 49 45 43 52 44 56 41
11 10 10 16 21 22 22 28 28 30 35 40 40 47 39 51 42 36 34 32 30 28 31 30 32 33 30 30 30 27 26 28 28 30 38 36 39 39 36 44 45 37 39 31
9 8 7 11 19 21 22 26 28 30 34 35 36 37 41 47 43 38 35 34 33 28 27 30 29 30 31 28 27 24 25 25 25 27 29 34 49 47 54 40 37 37 38 30
11 9 9 8 12 17 21 21 26 27 33 37 36 42 40 47 46 40 32 35 39 34 28 27 29 29 29 29 28 26 25 26 24 25 31 31 37 46 38 36 34 32 29 25
11 10 9 8 8 14 17 22 24 25 30 40 43 42 39 37 46 47 40 32 34 40 37 34 31 31 31 31 30 29 26 27 25 25 27 35 38 37 29 32 33 32 26 25
11 11 10 8 8 10 15 23 24 24 26 32 39 40 31 39 36 41 45 46 37 34 36 36 37 37 35 35 35 31 30 27 26 24 25 30 34 30 34 37 32 30 28 24
13 11 11 10 9 9 10 18 24 26 25 26 27 39 35 37 36 35 43 46 43 38 41 38 35 37 39 37 37 38 35 31 29 26 26 26 31 28 36 35 29 28 23 29
15 14 12 12 8 10 10 14 20 27 26 25 22 26 30 34 37 36 43 43 40 41 43 40 34 36 35 34 37 35 36 36 34 32 30 30 26 30 31 31 32 32 33 38
14 14 15 12 12 9 9 12 13 19 21 24 22 22 20 27 38 35 36 39 35 39 40 41 35 37 35 36 35 32 31 32 27 27 27 27 25 28 30 30 34 36 38 50
14 17 16 17 14 12 9 10 13 16 23 25 22 24 26 24 33 36 35 35 33 27 38 40 36 35 34 38 36 35 33 31 27 24 23 24 26 25 28 34 36 43 47 49
13 17 18 21 17 14 13 10 11 13 15 20 24 23 22 26 26 28 32 30 33 28 33 36 34 31 35 39 37 35 33 32 30 27 23 23 24 23 29 33 38 42 46 49
18 17 20 18 22 21 15 11 9 13 16 14 19 21 22 23 25 29 30 29 27 22 29 34 33 30 33 34 36 37 32 31 30 26 22 21 21 24 28 33 39 42 45 48
23 21 21 20 22 23 20 15 17 12 12 18 18 21 21 26 30 38 33 28 28 29 32 35 39 37 30 31 33 37 34 31 29 26 22 22 24 25 27 32 35 43 46 43
23 24 22 20 20 22 24 20 18 17 14 12 18 19 20 25 27 31 33 30 30 30 34 39 41 46 34 27 30 33 37 34 28 26 26 26 27 27 28 32 37 37 42 44
25 28 27 22 26 28 25 21 21 20 15 16 12 20 23 21 29 29 31 32 30 28 31 33 34 37 31 29 28 31 35 35 29 27 29 28 30 31 33 34 36 41 44 46
26 30 30 30 28 28 29 26 21 19 16 14 15 14 18 22 23 29 32 32 31 26 27 29 31 26 26 30 28 27 33 35 33 28 28 31 34 34 35 37 42 43 46 48
30 29 34 32 30 32 31 29 26 18 16 16 16 15 16 18 21 25 30 33 34 30 27 25 31 30 27 28 29 31 34 38 37 33 30 30 34 35 37 43 47 50 52 54
34 31 30 30 30 37 25 28 26 25 23 21 20 19 17 18 20 23 24 30 34 35 31 26 26 28 26 25 32 36 39 41 39 38 35 30 33 34 39 45 49 54 55 56
33 33 33 36 33 27 30 31 33 29 27 26 28 30 28 24 18 20 24 24 26 33 35 33 24 26 24 24 27 35 40 41 41 40 37 33 36 38 40 44 49 52 54 55
37 43 41 40 45 37 33 34 39 39 40 42 38 36 34 36 38 31 19 22 24 27 29 30 24 24 24 22 27 31 39 41 40 37 34 35 42 44 45 49 50 48 50 52
45 46 43 42 41 38 40 41 46 47 39 43 42 43 40 36 34 33 36 31 22 24 25 25 25 27 29 25 29 31 36 35 37 38 39 41 43 46 51 52 46 48 47 50
52 51 55 47 45 46 49 50 53 51 49 46 45 41 37 34 33 32 33 33 24 22 23 24 29 32 29 29 32 36 41 42 42 44 44 45 49 52 50 46 47 46 47 52
52 48 49 51 52 63 58 61 59 53 54 52 48 47 38 28 32 28 29 36 32 33 39 45 43 33 34 35 37 40 47 47 45 47 47 50 47 44 46 49 47 49 52 57
55 56 53 43 48 51 54 58 60 61 58 53 45 37 38 45 53 47 48 50 41 39 46 46 43 39 41 42 45 46 50 48 48 49 47 44 43 46 51 52 51 53 57 62
85 78 73 53 60 61 64 63 62 59 55 50 46 37 38 50 60 66 53 57 55 52 50 50 48 43 47 50 51 53 53 53 50 45 44 45 50 52 51 50 54 57 62 63
91 90 92 91 90 70 73 70 66 56 49 49 40 35 45 51 57 82 64 61 61 56 54 55 52 52 60 62 61 61 55 48 45 44 46 48 48 50 52 55 58 59 59 59

GFSCGP_prec_cthk_024.txt.gz
RH
11 14 15 17 20 24 31 31 26 28 29 36 42 43 44 50 52 50 44 35 30 22 18 26 30 33 35 34 31 30 30 30 31 32 38 42 39 43 40 41 45 45 46 46
10 11 12 15 18 21 28 29 26 25 25 34 43 41 43 47 48 44 42 40 31 30 20 21 25 27 28 28 28 28 28 29 29 30 33 37 39 37 39 41 38 38 41 45
9 9 9 12 16 18 21 26 25 26 27 37 46 46 47 48 51 47 44 38 35 32 28 20 22 24 25 24 24 24 24 26 26 28 29 35 38 32 35 37 35 35 39 32
9 9 10 10 13 16 18 21 25 28 30 41 47 52 50 48 50 46 45 44 41 34 32 29 23 20 22 21 22 22 22 24 25 26 26 27 28 34 33 40 36 30 29 34
11 10 10 11 11 12 12 20 28 29 30 35 36 50 41 43 45 47 44 43 44 41 37 34 29 30 24 21 21 22 22 23 23 24 23 24 26 27 28 35 37 29 30 30
11 12 12 10 10 11 10 14 23 29 31 36 31 36 38 41 42 40 43 44 42 43 43 39 34 36 36 31 30 28 27 23 22 24 23 22 22 23 25 28 34 29 27 24
15 13 11 12 13 11 11 11 17 25 31 29 30 36 30 33 37 36 40 39 40 43 45 46 38 39 37 33 32 32 33 32 24 22 25 24 21 21 22 25 30 26 23 23
19 17 13 10 11 11 12 11 13 20 27 30 28 34 24 27 31 35 37 39 41 44 45 47 44 36 35 34 34 32 35 36 34 26 25 27 26 21 22 28 30 22 21 22
18 16 11 12 11 11 12 12 10 12 16 23 22 25 21 23 32 31 35 41 40 42 45 42 39 35 33 34 32 29 31 32 32 30 27 28 27 25 23 31 26 24 22 29
16 17 12 10 13 14 13 12 13 12 12 14 15 20 20 20 22 27 29 34 39 41 41 36 41 40 36 35 33 32 30 29 29 30 26 26 25 23 25 31 24 24 27 38
17 18 15 12 14 14 14 14 13 12 12 12 15 10 11 14 21 25 28 28 31 34 37 38 36 36 37 37 34 32 33 31 29 29 30 25 23 23 23 25 24 28 33 35
21 20 17 14 11 13 15 15 14 14 14 13 10 8 8 9 19 25 26 29 33 33 35 40 36 37 39 39 36 32 31 32 29 30 32 26 21 22 22 22 24 31 36 38
28 20 20 19 16 16 18 15 13 14 14 12 15 11 8 9 15 24 29 29 37 39 42 41 40 41 41 39 38 31 29 28 32 30 32 31 21 19 22 21 26 29 34 36
30 27 22 19 17 14 17 16 16 16 15 13 11 11 9 9 13 21 24 22 28 37 43 41 45 42 40 41 39 32 29 30 31 30 29 29 21 16 19 24 28 30 31 34
41 36 25 21 20 20 15 17 17 16 14 15 12 12 11 9 12 19 21 25 26 32 40 43 42 44 41 42 41 38 33 31 31 30 26 25 22 18 19 24 26 29 29 31
46 42 35 28 22 20 20 18 18 17 17 16 16 15 14 11 9 16 19 24 35 29 32 38 33 35 37 42 37 37 36 30 31 34 29 25 22 21 21 23 26 26 27 31
54 48 44 38 27 24 27 17 19 20 21 18 19 19 17 14 11 12 17 22 26 33 29 32 31 32 36 38 39 36 35 32 32 32 32 31 24 19 21 26 28 26 26 28
54 51 48 43 38 35 18 20 19 22 24 23 21 23 19 15 14 11 13 18 24 32 32 30 33 34 34 37 40 39 35 31 29 30 32 34 32 26 21 24 28 28 30 33
54 53 50 48 47 33 26 23 21 22 24 26 25 23 21 18 18 17 14 15 20 28 34 33 32 34 34 43 42 40 35 33 34 33 31 30 36 36 28 23 26 31 35 36
56 50 52 52 49 42 28 28 26 27 30 30 29 29 25 23 25 20 15 13 15 17 23 31 31 32 41 35 38 38 36 33 32 32 27 26 34 40 40 31 27 30 35 39
77 72 63 58 63 43 32 28 31 32 35 33 33 33 30 29 28 23 20 17 15 16 17 19 25 29 32 37 39 36 35 33 31 32 31 30 30 39 42 45 41 33 34 42
85 90 81 68 73 50 48 40 33 34 37 36 37 39 36 36 32 28 24 22 19 18 19 21 19 20 29 34 36 36 38 35 34 35 34 33 31 37 44 47 48 44 42 48
90 85 73 77 88 78 65 66 45 38 37 40 41 44 42 40 37 33 32 29 26 24 22 22 23 23 20 24 27 27 29 31 35 37 36 34 33 37 42 45 47 46 49 55
80 84 85 74 88 89 76 68 71 50 47 47 45 46 46 44 43 41 37 33 30 30 29 28 26 25 24 23 23 26 27 28 32 36 38 30 33 34 41 43 46 48 55 61
79 80 83 83 88 88 88 78 67 63 55 52 50 46 46 44 45 46 42 39 36 33 34 33 33 32 31 31 27 26 25 27 34 39 44 45 44 44 43 48 56 62 65 72
85 84 82 91 97 96 91 81 71 63 61 60 56 51 54 50 47 47 47 45 40 35 33 34 41 48 50 50 55 40 32 37 46 48 45 52 52 52 56 65 72 83 84 95

GFSCGP_prec_cthk_027.txt.gz
RH
11 15 16 15 19 26 29 31 33 32 29 28 36 42 51 52 54 56 52 42 39 32 20 26 29 31 33 38 38 36 36 35 34 37 41 40 42 42 42 44 45 44 53 49
13 14 12 14 16 23 28 30 32 31 30 30 33 38 46 54 51 50 46 47 38 33 28 22 25 30 27 26 29 31 31 32 31 32 36 38 40 41 41 43 42 40 43 42
13 11 11 12 14 18 22 26 31 30 32 33 34 40 44 51 55 54 48 46 43 36 30 26 18 20 22 23 23 23 25 28 30 30 32 35 40 38 37 34 36 38 38 38
11 10 10 11 13 15 19 21 31 30 32 32 35 49 44 51 52 50 50 51 48 40 34 31 28 21 16 16 18 21 23 26 29 30 29 30 31 32 30 31 39 37 33 39
11 8 10 11 9 12 13 20 29 30 31 31 31 41 44 48 52 48 44 49 49 50 41 34 30 24 19 14 16 18 21 25 27 27 27 27 29 28 32 32 35 35 30 29
12 10 9 9 10 10 11 16 23 32 33 34 26 33 32 44 43 41 41 46 44 46 48 38 33 35 34 30 22 20 21 23 24 24 24 23 25 27 28 30 29 31 30 27
16 14 13 12 12 12 12 15 24 29 33 25 26 31 24 35 35 34 35 41 41 43 44 48 42 45 38 32 32 28 27 26 25 24 24 23 23 26 24 25 26 27 30 24
21 21 14 13 13 13 13 13 20 22 26 23 24 27 19 25 29 33 37 37 40 41 43 46 46 44 42 34 32 30 29 30 33 31 26 24 26 26 24 22 24 26 29 21
22 20 16 14 12 13 14 15 11 14 17 21 22 18 18 22 27 31 33 34 38 40 41 43 44 42 39 36 32 32 31 30 30 33 35 28 26 27 26 23 24 28 27 20
19 19 16 15 15 14 13 12 14 16 18 18 15 16 17 19 23 26 29 29 31 35 38 40 42 39 41 36 32 34 32 31 30 31 32 31 25 24 24 27 26 27 22 22
24 21 17 16 17 15 15 14 14 14 15 14 14 11 9 13 18 24 28 27 28 30 30 36 41 42 41 41 36 34 35 34 33 32 32 33 29 25 25 26 26 24 20 25
28 25 21 19 16 14 14 14 16 17 14 13 10 10 8 7 9 16 21 23 23 23 26 30 38 42 44 41 41 36 35 37 35 32 33 34 33 26 22 24 27 21 21 31
37 33 23 18 17 18 18 15 14 14 14 14 14 12 8 8 8 10 17 22 23 23 27 30 40 44 42 41 41 37 36 36 37 33 31 33 35 28 21 22 24 20 24 30
38 38 31 25 21 20 19 16 15 14 15 14 12 12 9 8 8 9 10 15 23 25 28 34 36 43 44 43 41 39 36 36 34 32 29 28 31 28 20 20 22 23 24 29
45 47 37 32 29 25 22 18 14 15 14 15 12 12 11 9 9 9 9 15 19 21 22 27 35 42 42 47 44 42 41 35 33 33 30 29 29 29 22 18 19 24 26 29
50 51 46 38 29 26 24 20 15 13 14 15 14 13 12 11 10 10 9 13 15 16 19 23 28 35 36 38 44 42 44 37 38 37 31 32 31 28 23 20 20 24 27 29
55 56 54 49 36 33 28 17 17 16 16 16 16 13 14 14 14 13 10 9 13 15 16 24 29 35 33 35 39 40 40 40 41 39 34 34 33 30 26 23 23 23 26 28
55 61 61 58 46 42 18 19 19 18 17 17 16 16 16 17 15 14 12 9 12 16 19 25 30 30 31 29 31 34 37 39 40 40 35 37 36 32 30 26 23 25 28 27
51 55 66 65 58 39 26 25 24 23 21 20 18 19 19 17 18 16 15 12 11 14 16 21 29 30 29 27 28 31 34 39 38 37 38 35 34 35 32 30 25 25 28 30
43 48 61 67 63 51 33 40 38 30 24 19 18 19 22 21 19 17 15 14 12 14 19 24 26 28 28 29 31 34 37 41 39 36 34 33 33 34 35 32 31 28 28 29
57 66 75 75 71 53 46 47 45 40 22 25 21 20 26 24 20 19 18 16 15 15 15 17 25 27 28 30 32 31 35 38 37 37 34 36 34 33 33 36 43 37 32 31
71 80 80 76 79 67 55 55 68 59 42 32 25 22 25 25 28 27 22 21 19 15 14 15 20 22 27 29 34 35 39 33 38 39 40 38 37 36 36 37 41 47 47 42
65 69 66 73 69 55 61 67 70 65 56 45 29 29 27 29 30 30 28 24 22 20 19 17 18 20 21 25 30 35 35 34 38 42 40 38 41 42 41 41 40 47 50 57
61 70 70 69 69 65 67 71 72 70 64 53 42 36 38 36 36 37 35 32 29 28 26 25 24 22 22 24 25 23 24 35 46 45 40 38 39 38 41 46 52 52 59 58
61 78 68 69 77 69 69 74 73 71 66 59 56 49 46 47 47 45 44 42 38 35 34 32 31 32 32 32 32 32 30 28 29 31 35 40 41 41 47 48 48 49 52 58
79 79 74 77 71 74 72 85 82 82 74 68 65 60 56 50 48 48 45 45 44 42 40 38 37 36 36 35 36 34 35 39 36 34 36 43 47 41 47 57 57 51 57 75

GFSCGP_prec_cthk_030.txt.gz
RH
13 16 15 15 17 21 28 31 33 34 33 33 35 38 48 52 57 59 57 59 42 36 25 28 28 33 38 38 39 38 37 33 36 34 30 35 39 38 41 44 46 49 54 53
14 14 12 12 15 18 23 28 34 34 34 32 30 36 41 47 50 54 59 54 48 37 32 24 26 30 32 34 35 34 33 33 32 36 38 37 39 38 39 42 44 44 43 48
13 12 12 13 13 16 19 23 31 33 34 35 34 33 37 46 49 56 58 48 47 43 37 25 20 22 26 28 28 28 27 26 28 31 36 35 40 40 37 38 39 39 39 40
14 12 13 13 13 13 18 19 27 33 33 36 36 37 37 41 47 48 51 47 47 45 40 34 27 26 21 21 24 25 26 27 29 32 31 32 33 35 33 30 33 38 37 35
14 12 13 14 11 12 13 16 22 30 34 32 33 34 29 33 48 45 48 41 44 39 38 35 30 23 23 17 17 19 21 23 26 27 27 27 30 32 31 31 35 35 34 34
14 12 12 10 10 10 11 13 19 26 32 33 27 31 25 33 35 44 44 42 42 42 40 35 31 29 28 27 17 18 18 19 23 25 26 25 25 29 30 32 34 29 32 32
16 14 12 10 12 11 12 15 23 26 29 27 26 29 20 23 27 35 39 43 43 42 41 40 41 38 40 34 32 20 20 21 22 23 25 25 25 27 29 31 30 29 27 30
20 21 16 13 11 11 13 14 23 25 25 24 26 22 19 19 27 33 37 39 42 42 41 40 44 44 42 39 37 35 29 21 22 23 23 24 25 26 27 30 30 26 24 27
23 20 17 15 13 12 14 16 12 16 18 20 22 19 18 19 22 30 33 36 38 40 42 44 47 46 43 38 33 34 34 31 27 26 27 28 28 27 27 27 28 25 26 27
22 23 18 17 17 16 14 13 17 19 21 21 18 15 17 17 17 24 30 31 33 34 38 41 44 46 47 43 32 34 35 32 31 28 28 32 34 31 28 29 30 27 27 28
29 23 19 20 21 17 17 16 16 16 18 18 19 14 11 11 13 17 24 30 30 31 32 35 38 43 46 44 39 36 36 34 32 32 31 31 32 33 30 26 28 30 29 27
38 31 27 22 19 19 17 16 16 18 17 16 16 12 8 7 7 11 20 27 27 26 27 29 32 37 44 45 43 38 37 34 31 33 33 31 32 34 32 26 26 29 31 25
40 40 31 26 23 20 21 19 17 15 16 15 16 12 8 8 8 8 11 18 25 24 23 25 28 30 34 42 44 43 38 34 34 35 35 31 30 34 33 28 25 26 31 24
42 45 40 37 31 30 25 19 19 18 18 16 14 12 10 9 8 8 7 9 14 20 21 22 24 28 30 36 42 42 41 40 41 39 36 32 28 30 32 29 23 21 28 26
46 47 43 41 37 33 29 25 22 20 18 18 15 14 12 11 11 10 9 8 9 11 15 17 20 23 30 33 37 39 39 40 40 40 36 28 29 32 30 28 24 19 23 23
51 50 48 44 37 33 31 26 22 21 19 19 16 16 12 11 10 10 9 9 9 8 10 13 20 25 29 33 37 38 38 39 43 41 32 34 33 35 31 29 25 19 19 25
56 54 53 50 42 39 32 23 22 21 19 18 16 14 14 12 11 11 10 10 10 9 10 11 15 21 23 26 34 38 38 40 43 42 37 35 36 35 35 32 28 21 17 22
60 61 57 57 48 45 29 25 24 21 19 18 17 14 14 13 11 11 12 13 12 11 11 12 13 15 21 22 28 31 34 38 38 37 40 38 37 36 35 35 32 27 23 20
56 60 60 58 57 37 33 35 38 41 30 20 19 17 15 14 13 12 13 15 14 12 10 13 14 18 23 25 26 28 31 34 33 35 39 40 40 39 38 37 32 30 27 24
42 53 59 61 60 51 38 44 38 42 44 29 27 18 16 16 16 14 14 14 15 14 11 11 12 15 23 26 28 30 28 31 30 34 39 41 43 42 39 38 39 34 34 30
47 57 61 60 66 52 42 46 46 43 30 33 35 31 21 17 15 15 17 15 16 16 14 13 15 17 20 28 32 35 33 30 31 34 38 41 45 45 45 42 44 43 39 37
53 55 63 64 70 56 41 47 53 48 46 42 38 33 29 20 18 19 22 21 19 17 16 17 16 16 20 26 30 33 35 38 40 41 43 45 48 44 41 41 43 48 51 52
54 51 56 48 43 40 35 45 47 51 55 49 42 35 30 24 21 22 26 28 26 22 20 19 18 17 18 21 29 34 40 42 44 44 45 49 54 50 49 49 51 44 48 66
63 54 60 67 42 40 45 52 53 55 56 58 51 41 35 30 31 31 32 36 37 33 28 27 25 24 22 25 26 28 29 32 36 40 49 48 51 52 49 55 51 52 51 42
69 69 54 70 55 56 51 48 54 63 63 67 60 51 47 43 42 40 39 39 41 39 35 29 27 27 26 26 26 26 27 27 28 28 31 36 38 42 49 56 55 60 62 62
81 64 69 49 46 59 59 54 57 69 74 74 68 62 62 57 48 46 43 41 41 39 37 34 31 32 31 30 29 30 31 32 31 30 29 29 31 36 45 53 52 54 56 57

GFSCGP_prec_cthk_033.txt.gz
RH
13 14 12 14 17 21 27 29 32 36 33 34 31 35 42 46 47 47 58 58 50 43 31 32 34 35 34 35 34 30 27 25 25 26 27 29 31 35 44 44 45 48 49 50
14 12 10 11 15 19 23 27 28 34 33 30 30 34 36 44 45 46 53 58 50 44 39 29 32 32 31 33 32 31 30 28 26 26 29 31 32 32 39 41 42 42 45 46
10 10 10 11 12 15 18 21 25 31 33 29 29 30 32 38 43 46 47 56 56 45 39 29 29 28 28 30 29 28 30 29 27 30 35 33 31 34 37 39 41 41 43 40
12 12 12 11 11 11 13 16 23 30 32 31 29 27 33 34 38 44 50 43 47 47 40 32 26 26 24 24 27 27 29 28 28 28 31 31 31 35 35 34 37 38 39 39
13 13 14 13 10 12 10 13 17 24 31 33 30 30 28 34 39 40 41 35 42 46 45 35 30 24 24 23 23 25 26 25 26 26 26 28 31 33 39 38 33 34 38 36
13 14 14 12 12 11 11 13 15 20 25 28 27 28 24 29 32 35 35 37 40 41 38 38 37 35 27 24 21 21 23 23 24 25 26 26 26 30 34 34 31 34 33 34
17 15 14 14 14 13 14 14 17 19 21 20 22 28 19 25 26 29 33 32 40 39 40 37 36 34 31 29 20 17 18 20 21 22 24 24 24 25 29 33 34 34 31 27
21 20 15 14 14 13 14 13 14 17 14 15 19 18 18 19 23 27 31 28 34 38 41 38 38 38 36 34 32 30 21 17 20 21 21 22 23 25 26 30 33 34 31 26
22 19 17 15 14 14 15 16 11 11 14 14 13 13 14 16 20 24 27 32 38 37 34 32 34 37 40 40 39 34 33 31 24 20 22 23 23 24 25 26 29 31 31 29
24 24 19 18 17 15 14 13 15 15 16 15 12 14 11 13 15 22 28 30 34 38 34 32 40 41 41 41 39 35 35 34 33 32 24 23 24 25 26 27 27 29 29 30
29 25 23 21 18 18 17 17 15 13 12 12 11 9 9 10 12 15 23 28 32 35 34 36 40 42 44 45 45 38 35 35 34 34 32 27 25 25 30 29 29 29 29 30
36 28 25 22 21 19 18 16 16 15 18 13 11 9 8 8 8 10 16 23 28 32 33 34 34 36 39 44 46 44 37 35 33 33 34 33 31 30 30 29 29 29 27 29
39 36 32 27 24 21 21 20 20 17 15 17 14 11 8 8 8 7 9 15 20 26 29 31 32 33 34 34 39 40 41 37 36 33 33 34 33 30 31 32 31 31 28 25
41 39 34 28 26 28 26 23 22 19 19 16 14 12 10 8 9 8 8 10 17 25 28 29 31 30 31 32 31 38 38 39 38 35 34 33 32 30 29 30 33 31 30 25
45 44 41 37 35 32 30 27 25 23 20 19 14 14 12 11 9 9 8 9 13 17 20 25 25 25 26 28 30 31 39 39 38 35 35 35 33 32 31 31 30 32 30 25
48 47 43 39 36 33 32 28 26 24 22 21 18 16 15 14 13 11 9 8 8 11 14 19 22 21 22 24 26 31 32 37 41 39 37 39 36 32 30 33 34 30 29 24
52 47 45 40 39 36 32 26 26 25 23 21 19 16 14 13 13 12 11 10 9 9 8 10 13 15 16 18 22 25 32 36 38 39 40 40 39 34 32 35 38 34 30 28
57 57 49 40 40 40 26 28 29 28 24 22 19 17 16 15 13 11 10 10 10 10 9 10 9 9 10 13 18 27 30 36 38 37 41 46 50 39 36 37 37 35 33 30
53 55 51 44 40 32 29 28 32 35 28 29 23 18 16 15 15 14 12 10 11 11 12 12 11 9 10 12 17 20 26 34 35 36 37 37 39 43 36 41 40 37 37 35
47 54 55 49 39 37 32 31 34 39 33 35 32 30 22 17 16 15 13 11 12 13 14 14 13 10 11 11 15 21 22 27 30 29 31 32 38 44 44 46 46 44 41 41
44 52 51 49 46 37 34 38 46 44 32 37 35 34 32 31 19 17 15 13 13 14 14 15 14 11 11 13 16 20 24 24 28 33 31 31 37 42 44 53 53 55 58 53
38 46 48 46 48 40 34 34 37 42 40 37 35 35 34 33 29 24 20 17 14 15 16 15 15 14 13 14 15 21 26 29 30 29 32 34 36 39 45 49 55 61 62 60
46 37 48 38 32 30 35 37 35 40 38 39 37 35 37 36 31 28 22 23 23 21 18 19 18 16 16 16 17 21 28 31 32 32 32 35 38 40 44 48 52 62 55 55
59 55 51 41 33 34 32 31 34 38 33 40 42 42 41 39 36 31 30 29 29 26 24 25 24 20 19 18 18 20 23 25 27 31 34 40 41 45 46 49 54 55 59 63
69 66 59 48 40 34 27 30 33 37 37 35 41 49 48 48 41 37 36 38 36 34 30 30 28 25 24 23 23 22 22 24 28 31 33 37 38 40 41 47 48 50 48 57
78 74 71 51 44 46 27 34 42 46 37 36 41 58 58 56 51 49 45 42 41 39 37 32 30 28 25 24 24 23 23 21 22 23 24 25 26 28 31 35 34 37 40 46

GFSCGP_prec_cthk_036.txt.gz
RH
13 13 12 14 19 23 28 29 30 36 35 32 33 39 40 45 47 46 45 50 52 42 44 31 36 38 37 40 36 36 36 34 33 32 32 33 33 36 39 44 46 45 45 44
13 11 10 12 14 17 21 23 26 36 34 31 33 36 40 41 44 43 47 46 51 53 45 32 33 34 34 38 35 35 33 30 27 31 30 32 35 37 39 41 42 37 42 44
10 10 11 11 12 15 17 19 26 31 34 32 31 31 34 36 39 44 44 48 50 51 51 40 28 30 32 34 34 33 31 28 26 29 33 35 36 33 34 38 38 39 39 40
13 12 11 12 12 11 12 16 24 27 31 31 32 32 32 35 37 37 38 40 46 42 46 41 30 28 29 31 33 31 30 28 28 27 31 32 31 32 34 37 41 41 38 39
14 13 13 11 9 11 9 12 18 25 28 30 31 29 31 34 32 36 39 39 41 38 43 41 32 23 24 28 31 30 31 29 29 26 27 29 30 33 39 40 40 39 39 36
16 15 13 11 12 11 10 11 13 17 23 26 24 27 24 29 28 33 39 34 35 39 40 40 35 34 26 26 28 28 29 26 26 25 24 24 27 29 35 39 41 39 36 38
18 16 16 14 14 14 12 14 14 15 17 18 20 24 19 24 26 31 33 33 31 37 40 34 38 34 30 26 24 25 26 24 24 23 22 21 23 26 28 34 38 38 36 36
23 19 15 14 14 14 13 14 12 16 12 14 17 18 16 20 25 27 31 32 33 36 35 33 33 35 35 28 25 21 18 18 21 21 19 20 22 26 28 29 35 34 36 36
23 21 17 16 14 14 15 14 10 11 12 13 13 13 14 17 20 24 27 29 28 29 36 35 37 37 36 34 32 30 26 20 19 20 20 20 20 22 25 25 26 31 32 35
27 26 21 20 17 15 16 13 13 12 16 15 11 12 14 13 15 19 23 28 26 23 28 35 37 34 35 38 38 40 36 31 28 28 26 23 21 21 22 24 25 26 29 30
31 27 26 22 18 17 16 17 15 13 11 12 13 10 10 10 13 16 18 22 26 21 28 30 30 31 36 42 46 41 38 35 32 30 27 27 24 22 24 26 25 25 27 28
34 31 31 23 22 19 18 17 15 14 16 12 12 11 10 8 9 14 17 22 26 28 33 38 35 37 40 39 41 44 41 39 36 34 32 28 28 24 21 21 25 27 27 27
41 32 34 31 26 23 19 18 17 16 13 16 14 11 11 9 8 11 18 23 26 29 30 35 36 35 37 40 44 45 47 44 40 38 32 31 30 28 25 24 26 27 28 28
43 37 32 29 27 26 24 20 18 18 16 15 16 14 12 10 10 9 11 17 23 28 30 31 33 33 36 35 34 36 43 46 46 40 36 33 32 29 29 28 28 29 30 31
42 41 39 37 36 31 26 22 20 19 18 17 16 16 15 14 11 11 11 12 20 24 28 28 31 33 33 32 31 33 35 39 44 43 39 36 33 33 33 31 29 32 32 34
46 47 43 39 36 32 30 27 24 22 19 19 18 18 18 17 14 11 12 11 12 19 21 23 27 31 32 31 31 31 30 32 35 40 40 41 38 36 35 33 31 34 36 36
51 46 44 40 36 35 35 28 26 24 22 21 20 21 20 19 17 14 12 11 10 10 13 16 23 27 27 29 27 26 23 29 31 34 41 41 42 39 39 38 36 36 36 40
53 51 45 41 41 41 27 30 29 28 24 23 22 21 20 20 18 16 14 12 11 9 9 13 18 22 23 24 25 24 24 26 29 29 38 42 41 41 45 45 42 37 37 39
52 52 49 48 41 33 33 31 30 31 28 26 24 24 21 20 18 17 16 14 12 10 10 9 11 14 15 17 17 18 20 21 27 27 34 39 41 45 49 48 44 51 53 47
50 51 51 45 45 40 36 32 33 35 38 34 36 33 32 28 21 18 18 16 15 12 13 12 11 11 10 10 11 14 17 18 18 26 33 37 37 42 46 48 52 49 54 53
46 51 50 47 44 37 37 44 48 42 52 43 41 40 36 33 34 28 23 22 20 17 14 13 13 13 12 11 9 9 12 15 19 31 34 38 34 40 44 43 42 45 46 49
49 48 45 46 45 42 36 34 38 46 45 46 42 38 36 34 33 30 28 24 22 19 16 15 15 14 14 13 11 10 11 15 21 28 31 32 30 33 36 36 37 37 46 48
45 41 39 41 37 36 41 38 39 39 42 42 40 37 39 35 30 32 30 30 25 22 20 18 16 16 14 13 13 12 14 17 23 26 29 34 34 34 35 35 37 41 47 50
44 48 50 45 37 39 41 39 36 38 38 43 39 35 35 33 31 31 32 32 27 27 27 23 22 21 21 16 17 17 16 17 20 26 31 35 37 38 39 41 44 43 43 46
53 51 50 43 38 39 36 35 33 32 34 34 34 34 33 32 35 34 36 38 34 35 34 31 30 28 28 26 24 23 20 19 22 24 32 37 36 37 39 39 42 44 46 47
74 64 57 47 45 50 44 41 38 24 20 31 31 33 32 36 40 38 38 42 43 39 35 34 33 32 31 29 26 24 24 27 26 26 26 29 32 36 36 38 39 39 40 42

GFSCGP_prec_cthk_039.txt.gz
RH
22 24 23 19 30 28 26 36 36 37 40 38 38 38 37 44 52 56 55 48 51 45 45 39 37 39 39 41 40 39 37 38 41 40 40 42 43 42 43 45 47 50 48 45
23 22 18 16 20 27 30 36 36 34 36 37 36 37 37 40 51 56 52 48 50 53 43 43 35 38 37 37 36 36 33 33 33 33 36 39 39 41 41 42 44 43 44 44
15 15 15 14 17 22 22 26 28 33 34 37 36 37 37 39 47 56 52 51 49 42 43 40 36 34 36 37 33 34 31 31 30 33 32 34 36 37 41 41 40 40 39 44
15 14 13 13 13 13 15 18 24 28 33 33 32 32 35 35 40 51 52 49 50 48 53 43 35 33 33 35 34 35 29 28 28 29 35 37 35 33 32 35 38 43 38 41
16 13 13 12 10 11 11 15 20 23 31 33 32 32 27 33 33 41 46 49 45 44 47 37 35 31 30 34 36 34 32 30 29 29 30 34 33 32 34 36 37 38 44 38
21 16 14 13 12 11 11 14 15 18 23 28 25 30 29 27 31 36 40 42 47 45 38 36 41 32 31 31 34 35 32 26 27 28 26 28 29 29 32 36 43 43 41 39
20 19 17 15 14 12 12 14 15 16 18 20 23 27 25 27 28 32 35 40 45 43 40 43 41 38 28 27 29 30 29 25 25 25 26 22 22 25 29 30 34 43 42 38
22 20 17 15 13 13 12 11 12 16 14 16 17 18 19 25 28 28 33 37 42 43 36 42 38 32 29 23 21 21 23 21 22 22 22 20 19 23 25 27 28 32 38 36
23 21 19 17 15 14 15 12 10 14 14 13 12 14 15 22 25 29 30 35 37 40 38 34 31 29 29 27 23 18 17 15 15 15 17 18 18 19 22 24 25 29 30 35
27 31 23 20 19 16 16 15 14 13 17 16 12 15 16 16 19 23 24 29 31 35 36 31 31 35 34 31 28 24 23 22 15 15 16 18 17 18 20 23 24 25 27 28
31 33 31 26 19 17 15 18 14 13 12 14 18 14 14 18 18 18 22 26 27 30 38 31 31 34 35 37 38 35 34 32 31 26 26 25 22 20 22 24 24 24 24 26
31 36 35 25 21 21 18 17 17 15 16 12 13 14 14 13 16 17 20 23 26 30 36 32 31 36 35 36 39 41 40 40 36 33 30 28 25 23 20 19 22 25 26 24
43 38 36 35 30 23 21 19 17 18 14 16 15 16 17 15 12 16 19 24 27 32 34 33 37 33 31 35 36 41 43 44 46 44 38 34 29 27 25 21 19 20 21 25
47 40 36 31 25 24 23 21 19 18 18 17 16 16 17 16 14 15 19 23 27 30 34 34 39 37 34 36 38 39 45 50 52 48 48 41 35 30 30 28 25 22 21 23
48 48 40 36 36 31 26 22 20 20 19 18 18 19 21 18 15 14 16 21 24 27 29 30 32 37 39 38 37 40 40 41 47 48 47 46 43 38 36 34 30 25 24 25
49 47 48 44 41 42 33 27 23 21 20 19 18 21 21 23 19 16 16 16 20 21 24 28 29 33 36 37 36 37 36 35 38 38 42 47 49 43 41 40 36 31 28 30
54 47 52 50 45 44 39 29 28 25 24 21 21 23 24 27 23 19 18 17 16 20 23 24 28 28 31 33 34 34 33 31 32 32 32 37 43 45 44 44 42 40 33 33
56 57 54 49 48 50 32 33 30 30 30 26 27 27 25 25 25 23 19 17 15 13 15 18 23 26 32 31 33 32 33 32 31 31 28 30 34 40 45 44 44 44 47 44
56 56 54 49 45 38 36 35 37 34 31 29 27 27 26 24 23 23 20 16 14 12 13 14 18 23 27 28 28 30 33 32 33 31 28 29 34 38 44 44 44 46 49 49
54 56 54 52 49 49 43 43 38 40 38 34 29 28 27 27 25 24 23 23 23 21 19 17 14 14 16 17 20 24 24 27 30 30 27 28 30 34 39 43 44 45 49 52
52 55 57 53 54 47 48 52 44 45 60 45 41 38 40 43 43 40 34 27 25 24 22 19 17 15 14 13 14 16 16 18 20 25 25 26 24 30 36 38 45 44 47 51
62 54 54 55 52 54 49 46 54 55 57 58 55 55 52 48 44 37 33 30 28 26 24 21 18 13 15 13 12 12 12 11 11 12 15 20 26 27 37 39 44 42 46 48
51 57 54 51 50 48 47 50 46 50 51 53 50 47 46 42 39 33 33 30 27 27 26 24 19 18 18 15 16 15 15 15 13 14 16 20 25 28 34 40 41 41 44 43
46 44 48 56 50 49 47 47 46 43 44 44 44 44 39 35 34 32 32 32 29 30 33 31 30 25 23 21 18 18 18 19 18 18 19 22 27 32 35 38 39 38 39 43
54 54 49 39 41 50 48 48 46 43 39 41 42 41 36 32 31 33 32 33 32 32 38 37 35 32 29 26 25 23 21 21 22 24 24 25 30 34 37 40 48 47 47 47
66 61 53 45 46 45 46 47 47 44 40 39 38 38 35 35 34 36 33 34 36 36 43 37 35 34 30 29 28 29 28 27 28 26 27 29 32 36 37 44 45 45 46 48

GFSCGP_prec_cthk_042.txt.gz
RH
22 23 18 18 28 33 39 39 35 42 42 42 40 37 40 44 49 66 52 65 46 48 43 41 40 42 43 40 38 37 35 36 36 36 34 36 36 41 43 46 46 42 40 40
27 20 18 22 26 30 35 34 32 36 38 40 38 38 35 41 47 60 52 69 47 50 46 40 38 38 38 37 36 33 33 35 36 35 36 36 39 40 41 41 40 39 36 35
22 18 23 23 25 24 31 32 30 33 37 45 42 37 38 40 44 51 59 48 49 48 45 41 34 34 35 35 33 31 30 32 32 32 34 36 38 39 39 37 36 36 32 35
24 25 22 23 23 20 28 26 32 36 33 37 33 38 35 30 39 44 47 50 52 47 49 52 46 37 32 32 31 29 29 29 29 29 30 29 29 31 33 35 33 33 30 30
24 22 20 23 20 18 18 21 29 37 33 35 33 34 30 31 36 43 46 39 63 49 45 45 44 33 32 31 29 27 28 27 27 26 28 27 30 28 29 32 32 32 32 35
29 24 19 16 17 14 14 22 26 25 31 31 30 34 33 29 31 32 42 51 44 52 50 46 44 40 35 33 32 29 27 26 25 24 25 29 27 26 27 30 32 32 35 38
33 30 20 15 16 14 15 16 21 22 22 23 23 30 30 29 30 33 37 42 50 52 52 48 39 38 35 30 30 28 26 25 24 25 24 24 25 25 25 27 29 32 36 34
26 27 24 16 15 14 13 13 14 20 20 21 20 22 19 26 27 29 33 38 42 46 54 46 42 39 35 31 27 26 24 22 21 21 19 19 20 22 20 22 27 27 30 34
27 24 26 21 17 17 15 13 12 15 17 18 18 18 17 22 26 28 27 33 37 42 48 42 40 36 35 28 23 20 20 18 17 16 17 16 16 16 15 18 20 24 25 30
26 30 24 23 22 18 16 16 14 15 19 19 16 17 16 16 23 25 28 30 33 38 44 43 42 33 25 24 23 21 17 14 13 15 13 13 12 14 14 15 19 21 25 24
31 32 28 27 24 20 17 19 17 14 13 18 19 15 13 16 16 22 24 27 32 39 41 43 43 31 27 30 30 25 21 19 15 14 13 14 17 18 18 19 20 23 24 28
39 30 31 32 26 24 21 17 18 18 18 15 17 15 15 15 17 18 22 24 27 36 40 40 45 33 32 31 31 30 32 31 28 25 23 21 19 19 19 19 19 20 24 27
53 38 32 37 36 28 22 20 18 22 17 18 18 16 18 16 17 20 18 24 28 32 36 40 43 35 31 31 33 34 37 37 38 38 36 33 30 28 25 23 21 20 19 20
55 43 41 36 32 30 27 24 21 19 20 18 19 19 20 18 18 20 17 20 27 30 32 38 40 39 30 33 33 34 37 39 42 46 45 43 39 35 33 32 28 24 22 19
56 50 45 39 36 34 27 24 22 19 21 20 20 19 24 20 18 20 19 23 28 33 36 42 42 43 39 37 33 32 34 38 43 46 46 45 47 43 40 37 36 33 26 23
57 50 51 48 41 43 39 28 24 24 20 24 20 20 23 25 19 19 21 25 27 31 36 37 38 41 48 40 36 36 35 39 42 42 43 46 48 49 46 41 40 39 36 31
61 61 59 50 49 45 44 36 29 26 25 23 22 22 24 26 25 21 19 22 26 27 29 31 33 35 38 37 39 41 38 38 39 39 40 40 41 44 46 47 43 42 39 38
64 59 58 54 56 60 45 41 34 31 26 25 24 22 26 29 29 27 24 19 22 25 27 27 25 26 29 31 34 36 38 38 35 36 35 36 36 34 39 42 44 44 44 41
57 58 59 57 58 53 49 42 38 36 34 27 25 24 26 32 36 35 29 25 22 20 20 21 22 22 24 27 34 36 33 30 30 30 32 33 34 35 32 35 38 46 47 46
57 58 58 57 56 54 49 44 42 39 37 38 33 32 31 32 36 44 35 32 29 27 26 25 23 20 21 22 25 28 29 30 29 30 30 32 34 35 35 33 34 38 43 45
50 60 58 57 55 52 54 50 46 46 61 50 45 40 38 39 45 43 38 35 32 27 25 22 19 17 17 18 20 24 25 23 25 26 30 31 32 33 32 34 33 34 36 40
54 56 61 57 55 62 60 54 57 67 66 54 53 50 48 46 45 42 41 36 33 29 26 25 23 19 16 14 15 16 18 18 16 16 18 23 27 29 29 30 32 35 36 37
56 64 61 58 53 54 58 58 63 59 63 64 53 48 47 46 44 41 40 36 33 32 27 30 30 23 18 17 17 15 12 12 12 14 16 14 15 16 18 23 28 33 37 41
67 63 64 59 55 52 57 56 55 57 53 58 56 48 44 44 41 38 35 35 32 30 29 33 36 36 31 28 24 20 15 14 14 15 16 16 17 18 21 24 30 35 39 41
58 60 62 64 59 57 52 53 52 50 49 48 51 50 47 45 44 40 38 35 33 33 36 44 46 42 44 38 30 26 24 19 18 19 20 20 21 24 25 28 35 38 38 44
57 54 57 58 57 59 54 52 53 50 45 44 44 46 50 47 42 37 35 37 38 37 35 45 53 44 40 37 32 29 26 25 24 24 24 24 28 31 32 36 35 40 42 42

GFSCGP_prec_cthk_045.txt.gz
RH
15 17 15 11 19 25 36 38 40 40 51 47 40 41 51 55 64 61 60 66 64 52 43 38 37 40 40 41 39 36 34 32 32 33 31 31 32 36 39 44 43 42 41 40
21 18 13 14 17 23 32 40 42 39 41 50 48 42 43 54 54 56 66 68 74 62 41 41 37 39 37 35 33 33 32 29 29 29 28 28 30 33 35 41 40 39 39 38
21 16 17 19 17 22 27 34 37 35 34 42 45 43 42 49 55 60 62 61 70 59 43 39 36 34 34 32 31 30 30 29 28 28 31 31 31 33 34 36 36 36 34 35
24 22 25 22 21 21 26 26 30 33 40 45 46 50 45 43 50 55 66 60 51 62 51 41 40 35 31 31 31 30 29 28 27 27 29 29 28 28 28 31 34 33 31 30
24 25 26 27 19 22 26 23 27 32 42 45 44 45 37 37 44 52 49 54 54 53 58 39 44 33 32 30 29 27 27 27 27 25 25 25 24 25 27 31 32 30 29 31
30 33 30 24 23 25 29 27 28 35 44 47 43 47 42 40 36 42 43 50 51 52 49 44 44 37 32 30 30 28 27 26 26 24 23 23 22 24 25 26 28 29 28 32
36 32 35 28 28 28 30 31 31 35 41 43 38 39 39 35 33 34 39 45 49 49 44 43 46 41 34 30 26 26 26 25 23 20 21 22 22 23 21 23 25 29 30 30
37 35 33 33 27 27 22 22 22 28 32 29 33 31 30 31 33 34 36 43 48 47 46 40 44 43 32 32 25 24 23 22 22 20 19 23 22 22 21 20 20 22 25 28
37 32 39 34 25 22 21 19 19 22 22 25 24 23 24 24 28 31 34 41 42 45 46 43 44 41 35 30 26 21 22 24 23 22 21 18 17 17 16 17 18 20 24 25
33 39 40 37 33 22 19 20 19 19 23 23 18 17 14 15 23 28 29 33 39 43 43 44 42 41 34 31 25 21 20 20 20 20 18 14 12 14 14 14 15 16 18 22
51 39 30 36 36 25 19 21 19 16 20 25 26 18 15 15 15 18 24 29 36 42 41 37 40 41 37 22 24 20 18 18 18 17 17 16 14 13 15 16 15 16 19 20
64 49 35 32 28 27 25 20 20 18 18 17 18 17 19 19 16 15 21 24 29 38 41 36 38 44 37 25 24 20 17 14 14 15 15 16 16 17 17 17 15 16 17 20
74 55 46 34 34 34 30 23 20 21 20 19 17 19 18 18 16 16 17 22 28 37 42 38 39 44 39 30 24 26 25 23 19 18 18 17 19 18 17 17 17 16 16 17
83 56 53 44 31 32 32 28 23 22 22 18 15 19 21 21 18 18 19 21 22 30 41 43 40 42 42 32 25 29 31 33 30 29 28 28 26 23 22 23 21 22 19 19
79 54 49 44 37 35 35 31 28 23 21 23 16 21 22 23 21 21 19 19 22 28 32 43 42 39 40 36 23 30 33 35 35 36 36 36 35 33 30 30 29 27 25 25
75 65 56 48 39 39 42 38 29 25 21 21 20 18 22 22 23 24 24 23 24 30 33 40 44 40 39 38 23 33 36 34 37 38 41 41 41 43 41 36 35 34 32 27
77 66 60 50 44 49 50 39 31 28 24 21 20 20 27 26 24 22 23 22 24 28 35 41 46 48 44 42 34 29 31 32 34 38 40 40 42 44 46 46 42 36 37 35
78 67 58 60 55 61 44 43 42 32 27 23 21 25 26 28 28 27 26 25 26 29 31 34 35 39 44 47 50 43 42 40 38 40 41 41 40 39 39 41 40 43 42 39
71 63 62 67 64 53 49 51 46 38 44 39 33 27 30 34 36 38 34 30 28 30 31 31 33 34 35 38 43 47 47 47 44 39 37 38 39 39 40 36 37 41 43 47
64 62 65 67 69 65 66 54 46 42 56 46 41 37 37 38 44 48 37 31 27 29 29 30 30 31 32 33 32 32 35 37 39 39 37 37 38 38 36 34 37 38 39 40
64 68 67 66 70 81 69 56 51 58 68 55 50 50 56 46 50 47 41 35 30 27 27 27 27 27 30 28 29 32 37 38 34 33 33 32 32 32 31 34 38 40 38 38
71 70 67 66 68 88 75 65 64 69 67 61 56 58 48 46 44 43 40 38 33 29 26 24 21 18 20 22 23 25 26 28 29 32 35 32 31 31 30 29 31 34 37 38
85 83 91 81 80 74 74 73 70 64 65 63 58 56 49 46 44 43 41 39 36 33 29 28 25 21 19 18 19 19 20 21 21 22 25 26 25 23 23 23 23 27 30 31
70 70 74 74 73 73 74 77 75 66 65 63 58 49 44 45 44 43 42 43 39 34 32 34 34 30 28 27 23 21 19 19 19 18 18 16 15 15 17 19 20 21 24 26
70 69 71 62 64 66 59 60 66 65 60 58 54 50 46 45 44 43 43 42 40 35 35 36 38 39 39 42 39 33 27 20 18 16 15 15 13 15 19 22 22 23 25 29
68 70 70 61 57 62 60 58 56 59 59 57 54 53 51 48 47 45 45 43 39 37 34 36 39 43 42 43 40 39 35 31 26 24 23 20 19 20 22 23 24 26 29 34

GFSCGP_prec_cthk_048.txt.gz
RH
15 14 13 11 19 24 33 39 42 44 47 62 56 58 57 58 61 61 60 59 57 49 37 41 41 38 39 38 38 42 40 40 40 39 35 34 36 35 38 40 41 42 40 43
20 16 10 12 16 20 29 35 38 38 43 55 54 55 61 64 55 54 58 64 60 54 46 39 40 40 41 37 36 40 40 40 37 36 34 31 34 35 38 39 40 39 41 45
23 18 16 14 15 18 23 32 31 34 43 48 53 57 64 68 63 58 57 56 55 52 43 38 38 38 40 38 35 36 38 37 33 31 32 29 31 34 35 36 36 36 38 45
28 23 24 18 15 15 20 23 29 30 47 58 49 52 55 61 60 59 53 52 54 56 49 34 41 41 36 36 35 35 35 36 32 29 28 27 26 26 28 29 31 32 34 38
24 27 25 25 16 15 14 22 32 32 46 50 51 51 47 57 67 54 50 49 49 55 51 41 33 40 34 35 36 34 33 34 31 29 29 28 28 26 26 28 31 32 32 30
28 29 30 24 27 22 18 19 33 36 46 53 48 52 47 59 57 53 46 44 45 51 50 45 36 40 38 34 35 32 32 31 30 30 28 26 25 24 23 25 28 30 30 31
29 32 32 36 34 34 29 29 35 46 53 52 44 50 42 50 51 46 48 46 44 45 47 49 41 37 39 32 31 30 28 28 28 28 25 24 22 22 21 22 23 24 27 30
27 33 32 35 39 38 33 34 40 47 47 45 32 43 34 37 42 46 47 43 45 44 47 52 45 38 37 32 30 29 26 25 25 26 24 21 21 24 22 21 21 24 26 28
66 26 34 38 37 40 36 34 33 35 30 37 31 32 31 37 34 40 45 50 50 47 45 49 47 40 37 32 30 27 25 23 23 22 23 22 23 21 19 19 20 21 23 25
75 59 35 36 42 41 32 32 33 33 35 28 27 26 28 29 28 31 36 40 40 45 44 44 46 40 42 32 33 28 27 21 21 22 22 24 20 19 18 18 17 16 17 19
79 67 37 47 43 35 38 34 31 29 30 26 26 20 19 22 26 28 32 34 33 41 43 44 44 44 40 34 32 28 28 25 22 21 21 22 21 18 16 15 14 14 15 16
88 78 70 48 34 36 42 34 32 27 24 24 22 15 16 16 16 23 25 34 31 32 37 43 44 43 42 38 32 26 24 24 20 17 19 19 18 17 16 15 15 15 16 17
96 91 76 46 43 43 42 38 26 23 22 21 18 11 15 17 19 19 18 24 29 31 32 36 47 47 44 38 31 19 20 19 17 16 16 16 18 20 20 18 16 15 15 15
95 94 82 74 52 53 38 32 33 24 24 20 15 14 18 18 18 18 18 18 25 27 28 33 44 45 46 38 32 21 19 20 15 13 14 16 19 20 21 20 19 18 16 16
96 91 77 65 55 51 44 36 30 28 22 21 14 16 19 19 19 20 17 17 26 30 32 35 38 40 45 45 35 32 24 25 24 22 20 19 19 20 22 22 22 19 17 17
96 95 73 58 49 46 43 38 34 30 23 22 18 18 18 20 25 22 21 19 23 27 32 36 38 41 43 43 39 31 26 31 30 31 31 32 31 28 29 27 26 25 23 21
97 91 77 66 55 49 49 46 41 33 28 24 21 17 22 27 33 29 23 23 24 27 28 34 35 32 35 41 40 37 27 36 35 37 39 39 37 39 40 36 33 32 31 28
89 90 73 68 61 61 54 51 49 43 41 39 33 26 26 33 36 33 34 31 30 29 34 34 37 36 38 44 45 41 39 35 39 39 41 42 40 42 45 45 43 41 38 38
84 90 76 73 70 55 59 58 58 51 54 48 41 31 33 34 33 38 37 35 35 33 33 35 38 38 39 43 45 48 47 38 39 40 45 45 41 42 43 41 42 43 44 44
87 90 77 71 80 77 77 68 56 54 59 52 46 43 43 39 42 49 44 42 40 36 36 36 36 35 36 40 43 45 46 41 32 39 42 45 47 43 39 39 40 40 40 42
95 89 75 72 87 92 85 75 64 71 71 60 53 47 45 46 51 49 46 44 44 41 38 37 34 34 35 34 34 37 42 41 41 46 48 46 45 44 42 41 37 36 38 38
98 98 96 85 91 99 85 84 82 76 68 65 55 48 46 45 46 48 44 42 42 42 40 40 40 38 34 33 34 35 37 37 39 39 41 40 41 41 39 38 38 38 39 40
94 92 97 93 93 86 84 91 82 73 70 69 61 53 47 45 44 46 46 43 41 41 41 42 41 44 44 40 35 34 34 36 37 38 39 38 39 38 39 39 37 35 33 34
80 79 86 77 74 79 80 82 81 74 68 68 63 58 53 47 45 49 48 45 40 40 42 41 40 38 36 36 35 33 32 32 32 30 31 32 33 33 33 32 30 27 24 24
85 80 80 71 64 68 75 80 80 78 76 72 60 54 54 53 50 51 50 47 43 39 42 42 41 40 37 32 27 24 26 29 30 27 23 20 20 20 21 22 23 23 22 22
76 77 77 74 69 71 70 74 80 78 74 71 56 48 48 53 55 55 56 53 47 42 40 42 41 40 41 39 33 29 24 24 24 25 27 26 23 21 20 20 20 22 23 24

GFSCGP_prec_cthk_051.txt.gz
RH
19 17 15 9 13 24 31 40 46 44 45 53 55 62 65 60 64 67 67 62 60 57 43 36 40 43 42 43 37 36 36 35 36 36 36 37 39 40 40 39 39 40 42 52
24 19 13 12 11 18 29 32 38 43 48 51 61 60 59 58 57 59 61 61 60 57 53 37 33 37 37 38 37 36 35 35 35 36 35 35 37 38 41 41 40 38 42 50
26 21 17 16 13 16 22 30 33 37 49 50 56 66 61 61 66 67 67 67 66 59 60 44 33 31 34 33 34 35 34 35 38 38 37 37 37 39 40 38 38 35 41 44
31 24 25 18 17 15 20 20 28 39 48 54 47 58 57 58 63 63 63 64 65 64 61 56 41 30 28 28 31 35 35 35 36 38 38 36 33 32 34 34 33 34 38 40
26 27 28 27 18 16 16 16 26 36 43 48 49 52 52 55 67 57 56 57 59 63 65 57 45 31 24 26 29 33 36 35 34 35 36 32 32 28 29 30 30 32 34 36
30 25 32 26 27 21 16 18 23 38 45 52 44 56 47 55 50 52 48 53 54 59 62 58 44 39 32 27 30 31 34 35 35 34 36 34 31 28 27 27 27 29 31 31
42 33 29 35 33 33 23 23 31 46 56 44 41 52 41 44 40 44 44 44 48 55 59 59 56 39 35 31 29 31 32 33 36 35 35 34 31 30 27 25 25 27 28 30
67 45 33 31 35 33 36 29 36 44 51 42 36 47 41 38 33 40 45 41 48 54 55 57 55 45 35 31 27 30 30 32 32 34 33 33 31 29 26 24 24 26 26 28
71 58 42 41 35 38 37 36 29 31 36 42 32 35 31 35 41 43 41 44 50 53 54 53 58 52 36 30 28 26 27 29 30 30 31 29 28 27 25 24 24 23 25 28
75 67 50 39 43 42 41 39 39 35 39 39 30 32 28 33 38 41 36 38 43 50 53 53 56 55 39 30 28 28 27 26 26 27 28 26 25 26 25 24 22 21 21 24
77 71 59 52 48 40 43 42 38 35 34 35 32 24 20 29 38 36 31 27 32 39 46 49 51 50 48 36 28 30 30 29 28 26 25 25 26 26 25 21 20 19 18 18
79 83 76 59 49 50 53 43 46 41 37 33 29 25 17 21 34 36 37 33 29 31 35 41 48 50 51 41 34 32 30 32 28 24 23 24 25 23 22 20 17 17 16 18
81 93 75 57 52 53 54 45 40 38 38 33 31 21 18 17 21 33 33 32 31 29 33 40 43 49 51 46 37 35 31 29 30 26 24 23 21 20 19 18 18 17 16 17
66 89 83 74 68 72 68 54 48 46 41 34 28 23 18 15 17 24 27 28 28 30 28 33 37 43 50 47 38 34 27 27 29 27 23 21 19 18 18 19 19 18 17 17
63 82 81 70 70 71 66 58 48 49 35 31 23 19 18 17 17 20 20 22 22 22 19 31 35 36 47 47 40 33 23 22 24 22 20 17 16 19 20 21 21 20 19 17
61 82 83 69 60 63 62 57 53 45 42 34 21 18 19 23 25 27 26 23 20 16 16 29 33 34 41 45 42 31 21 16 20 19 15 16 18 19 21 22 22 19 18 17
62 89 85 71 61 64 67 66 57 54 47 42 26 23 27 30 30 32 32 26 19 17 20 27 31 34 36 40 43 34 27 23 25 26 28 25 25 25 25 25 25 25 23 22
71 94 91 83 69 76 74 71 59 54 47 40 36 33 36 34 37 35 39 33 26 22 27 32 33 35 35 41 45 40 36 30 32 36 38 38 39 38 38 37 35 34 34 31
78 93 94 86 76 79 76 75 69 57 51 44 40 39 42 38 35 39 45 40 36 33 30 32 33 35 38 40 47 45 41 38 35 38 44 46 44 45 47 47 46 43 40 40
95 96 98 96 98 95 87 76 66 58 61 51 47 43 44 40 46 51 51 50 43 37 34 32 32 35 39 44 49 46 42 43 33 40 41 49 51 49 47 49 49 49 49 49
96 96 97 98 97 94 90 76 68 71 71 58 52 48 46 51 51 52 54 54 50 45 40 35 34 37 40 41 44 46 45 46 44 32 40 54 53 51 50 52 49 45 44 44
96 98 98 98 97 97 91 79 77 74 67 60 55 51 47 52 54 53 54 55 54 51 45 40 39 40 45 48 50 52 53 51 53 51 37 48 53 51 50 47 44 43 42 40
95 98 97 98 89 90 93 86 79 75 66 61 58 53 50 53 53 53 54 53 54 53 52 50 46 45 41 42 46 49 50 51 49 48 43 46 51 52 52 51 51 47 44 43
94 92 94 89 82 82 84 79 83 82 70 63 60 54 51 52 52 52 53 54 54 55 54 52 52 49 48 46 43 44 47 48 49 50 48 48 46 45 47 49 47 47 45 43
93 94 94 93 88 79 81 84 82 82 76 64 57 54 52 55 53 54 54 51 53 54 56 56 56 58 58 55 49 43 40 40 40 40 39 38 37 37 40 42 43 41 42 40
84 87 90 88 86 89 85 86 86 87 86 73 59 51 52 54 56 57 55 52 51 52 53 54 57 54 52 53 50 45 38 34 32 32 29 28 30 32 32 33 32 31 30 30

GFSCGP_prec_cthk_054.txt.gz
RH
22 21 16 12 12 18 28 36 44 51 55 59 63 68 66 67 68 65 60 59 54 52 46 40 45 43 43 40 37 34 30 27 29 30 33 37 37 43 43 42 41 41 49 52
25 22 18 16 14 15 24 28 37 47 55 55 56 62 70 65 61 63 62 66 61 55 55 50 38 41 40 39 36 37 31 28 29 32 34 36 37 40 42 43 40 40 48 49
26 22 21 20 17 15 17 26 29 38 52 51 53 56 69 66 63 68 65 66 66 56 55 49 37 36 39 39 38 37 32 30 32 33 36 36 38 41 42 42 41 40 46 45
32 25 25 23 20 18 16 16 27 33 46 53 52 54 57 64 62 60 63 63 64 62 55 52 45 34 34 34 38 37 33 32 33 35 35 37 37 37 38 41 40 38 43 40
34 30 29 27 22 20 16 12 20 34 43 47 50 53 50 59 60 54 57 59 61 64 57 55 44 34 30 32 35 34 33 32 35 35 37 37 38 40 40 38 39 36 37 37
32 33 32 30 29 27 20 21 16 29 43 52 42 50 40 52 47 49 56 57 59 61 62 58 47 41 32 32 32 32 33 31 32 36 39 38 37 36 35 35 34 32 31 32
41 35 33 36 35 34 31 25 35 36 49 42 39 51 38 32 37 40 45 50 55 59 62 63 56 42 37 31 29 30 31 32 31 31 34 35 35 35 32 32 29 28 28 28
57 43 37 38 35 38 37 32 34 42 37 34 37 48 39 28 30 40 44 45 54 58 59 60 54 47 41 35 28 28 28 30 30 28 30 31 33 34 32 31 29 26 25 27
63 50 44 45 42 41 42 40 28 32 31 33 32 34 33 29 34 41 44 45 47 51 57 59 59 51 43 39 32 26 27 28 29 28 29 31 33 34 33 31 29 27 25 24
55 64 47 52 47 44 44 40 47 38 40 37 30 31 34 29 34 42 42 39 43 47 52 57 59 60 45 41 34 29 27 27 26 28 28 30 30 31 31 30 29 28 26 25
46 58 52 51 55 45 45 49 46 40 34 33 34 26 26 24 28 38 41 40 39 42 45 51 50 59 48 48 35 33 28 28 28 28 28 28 27 28 29 29 30 29 26 24
49 58 67 56 54 54 56 53 50 52 45 35 36 27 18 23 22 31 38 43 35 36 38 42 44 54 52 45 40 31 31 30 28 26 28 27 25 26 27 28 29 28 24 22
55 61 67 54 49 60 60 59 57 52 49 45 38 33 21 22 20 25 35 40 36 34 36 39 46 42 49 45 42 36 32 31 28 27 27 28 27 26 25 27 25 24 23 21
55 57 58 67 63 71 64 63 60 61 59 47 40 31 21 21 20 24 29 33 33 34 34 35 38 42 42 46 42 37 35 33 29 29 26 26 28 25 23 23 22 22 24 22
59 61 49 57 74 73 64 65 64 64 57 53 40 34 29 21 22 24 27 33 34 32 30 31 33 39 45 41 45 42 40 37 32 28 27 26 26 24 23 22 20 21 21 21
63 60 54 57 68 66 65 60 63 59 55 51 44 34 32 31 26 30 34 33 34 29 29 26 25 33 40 43 42 39 39 36 30 27 28 26 25 22 20 20 20 21 22 22
67 65 67 67 67 68 65 58 63 64 61 57 44 34 34 36 35 33 28 29 33 30 26 27 26 29 33 38 43 36 34 32 25 27 25 23 20 18 20 20 21 23 21 20
68 69 77 84 74 84 71 67 65 67 67 62 56 46 45 43 41 37 34 32 31 27 19 17 18 23 30 34 43 39 38 25 14 16 19 16 14 17 20 22 23 21 20 20
59 68 80 91 90 93 83 79 75 78 68 67 61 52 47 45 43 42 40 40 34 31 28 24 23 27 36 36 43 39 36 28 24 24 27 28 30 31 31 31 32 32 32 31
65 77 87 91 96 99 97 79 79 74 74 70 62 53 48 45 45 43 46 45 44 37 30 28 29 31 38 40 41 45 36 30 25 31 31 35 38 40 41 43 45 45 45 44
87 90 89 93 97 98 94 80 75 77 76 73 62 56 50 46 45 46 49 49 49 41 34 33 36 36 40 39 44 49 39 33 34 34 40 46 48 49 52 54 54 53 52 51
93 91 91 97 98 98 94 79 81 80 77 72 63 57 50 47 47 49 49 53 53 50 42 40 41 42 44 45 47 50 46 41 46 47 41 48 54 52 53 54 56 56 55 51
99 91 87 92 95 97 96 90 80 84 82 72 67 58 53 49 52 52 50 55 57 54 52 50 48 44 42 46 52 53 57 53 49 48 49 45 48 56 55 53 55 52 52 46
97 93 93 97 95 96 92 86 87 83 81 75 66 59 54 53 53 54 54 54 58 62 58 58 55 51 48 51 59 58 59 53 53 54 56 54 43 48 56 55 56 52 48 47
98 98 93 94 95 97 95 92 94 86 83 77 68 60 54 52 53 54 54 56 58 58 61 61 57 55 54 57 63 62 62 63 61 62 62 59 53 49 49 53 54 53 53 51
96 97 97 98 94 96 99 95 91 89 84 76 67 64 57 54 54 51 52 53 54 57 58 58 58 56 56 58 59 60 57 59 57 57 55 55 56 54 48 47 46 48 44 45

GFSCGP_prec_cthk_057.txt.gz
RH
19 18 19 15 14 14 22 29 34 54 60 56 55 57 64 68 61 57 60 59 52 40 43 49 48 47 47 42 38 32 27 27 30 32 34 39 40 43 49 47 49 50 53 57
22 18 17 19 17 15 15 25 32 44 56 59 56 58 62 64 62 58 61 61 57 47 49 41 45 46 46 44 39 35 30 26 28 28 30 34 36 40 44 44 43 49 49 51
23 20 20 21 20 17 14 18 26 37 50 54 56 61 63 64 63 61 62 65 63 60 48 47 40 40 45 44 41 36 32 29 27 28 30 34 36 39 42 41 41 48 49 47
26 25 25 23 21 20 17 12 20 31 42 49 56 56 57 61 64 61 60 60 62 60 55 48 44 36 39 42 40 39 35 33 27 28 28 32 33 36 37 39 41 48 47 47
28 24 27 26 24 24 19 15 12 25 38 45 48 58 47 49 61 60 56 57 60 63 60 53 44 34 33 41 39 38 39 37 29 27 29 32 34 35 36 38 39 45 42 42
30 31 28 28 27 28 24 22 18 12 26 43 40 46 41 45 44 53 53 56 58 60 63 60 48 40 32 35 40 39 40 39 32 30 31 33 35 36 38 37 36 39 38 38
28 29 32 33 32 32 31 28 28 27 20 27 29 42 35 36 39 49 48 53 53 59 60 59 52 41 33 29 32 35 37 38 34 32 32 34 34 37 38 37 35 32 32 33
30 23 31 35 35 35 32 33 27 32 20 14 21 35 31 32 34 43 46 50 55 58 58 57 53 51 37 28 24 27 32 34 32 32 33 34 35 35 35 35 34 31 30 29
38 32 31 35 41 39 40 37 28 28 28 21 14 21 24 27 32 40 45 50 51 54 54 51 50 53 51 39 26 22 25 29 30 30 30 32 34 34 33 32 32 30 29 31
35 29 29 34 40 43 42 37 46 41 31 27 22 19 16 21 26 32 42 44 47 50 50 50 48 47 50 45 39 30 24 25 26 29 28 29 30 30 30 31 31 30 29 29
40 35 24 33 37 40 45 49 46 43 34 27 26 22 15 15 19 24 31 39 44 49 46 45 47 42 46 48 42 36 31 26 28 28 28 28 29 30 31 31 30 29 30 30
49 44 36 29 38 46 54 56 47 49 46 37 33 23 16 16 14 19 26 38 45 46 46 46 46 48 45 45 46 38 35 32 28 28 29 29 29 30 30 30 29 28 29 29
55 56 44 21 29 48 57 60 55 48 51 46 41 29 18 19 18 21 27 39 42 46 45 45 46 46 51 40 42 42 36 31 27 30 29 30 30 29 29 28 28 27 28 28
57 52 46 35 42 65 70 64 62 56 51 48 46 38 22 17 19 20 30 34 36 42 44 45 47 45 45 41 42 37 39 36 32 26 28 28 27 27 26 26 26 26 26 25
66 54 46 37 40 51 56 62 63 58 53 49 43 43 31 25 21 20 25 31 35 39 40 41 42 41 39 38 43 42 39 41 38 32 27 26 25 25 26 27 26 25 23 21
75 60 51 40 33 45 49 56 58 57 52 52 47 45 35 32 28 25 27 30 36 39 42 38 39 38 36 41 37 41 40 37 37 35 30 25 25 25 25 27 26 22 20 22
72 66 54 38 47 51 52 52 54 55 56 51 49 43 43 39 36 29 28 31 36 41 41 41 35 34 33 35 38 38 39 39 38 37 35 30 24 24 25 24 22 20 20 21
73 73 67 47 52 58 40 56 60 62 63 62 56 53 50 45 43 36 33 33 34 40 38 38 36 32 33 36 42 43 47 41 42 38 37 32 26 26 23 20 18 19 21 22
64 69 63 60 74 70 63 66 77 71 70 67 62 55 52 49 48 40 36 35 33 37 40 37 34 29 28 32 38 39 46 41 39 34 31 28 26 23 20 17 17 19 22 22
74 73 69 70 89 80 82 79 88 86 79 70 67 61 59 55 50 46 43 40 39 36 40 34 31 26 25 31 35 36 44 39 33 16 16 18 16 13 13 15 18 20 22 21
79 80 72 83 87 79 91 94 92 95 79 75 72 65 62 56 52 55 55 49 42 40 37 32 25 26 24 27 33 38 43 41 29 24 23 24 26 27 29 31 31 33 35 36
67 72 78 86 90 89 96 96 95 90 81 76 75 67 65 60 57 59 57 53 49 47 44 40 36 34 34 32 38 40 48 44 35 30 31 34 37 40 41 41 43 45 46 47
98 92 98 98 97 96 97 97 92 93 86 81 76 70 68 63 61 61 60 62 58 52 54 50 47 44 43 45 47 50 54 49 42 39 36 42 43 46 46 47 49 52 54 54
98 98 99 98 97 97 98 97 94 92 85 80 79 72 71 67 61 60 60 61 60 60 57 53 60 54 53 53 53 52 56 50 47 47 46 43 44 46 51 53 54 55 55 58
98 98 99 99 98 98 97 98 96 92 86 87 80 74 72 68 63 61 60 66 61 61 60 55 57 56 62 62 62 59 64 57 52 51 54 57 56 48 51 56 60 55 53 59
98 98 98 95 96 96 97 98 96 93 87 87 84 80 73 68 64 60 60 62 59 61 66 59 55 58 59 63 67 68 70 72 66 60 58 60 67 67 58 58 60 58 60 61

GFSCGP_prec_cthk_060.txt.gz
RH
17 19 15 16 16 13 14 19 24 43 62 64 66 65 65 62 57 52 45 45 44 50 53 55 50 47 43 44 39 33 31 36 40 43 50 53 59 58 57 57 52 50 54 51
19 16 17 18 17 17 14 19 25 31 53 63 65 62 63 64 60 55 53 50 43 43 50 51 50 46 43 43 40 35 31 33 32 41 45 48 51 54 54 52 47 49 49 50
19 18 17 17 19 19 15 13 21 30 40 54 65 61 61 61 64 57 56 54 54 46 42 44 46 46 44 42 41 36 33 29 29 35 37 41 43 45 45 45 46 46 45 45
20 20 20 19 19 18 17 13 12 23 36 42 56 56 55 57 62 59 59 57 55 55 50 43 42 43 43 43 44 39 36 29 27 27 31 35 38 39 41 44 47 47 43 45
25 20 24 22 22 20 19 18 14 12 28 39 48 55 53 55 57 59 59 57 55 55 54 50 40 38 40 45 44 41 40 33 29 25 28 33 36 39 42 43 44 46 41 43
23 30 24 24 24 25 23 21 19 16 12 27 33 42 44 57 54 54 57 59 58 55 56 56 54 43 38 41 45 42 40 33 29 27 25 30 32 39 43 41 42 46 43 42
19 19 23 28 29 28 26 25 27 24 17 10 17 33 36 45 53 53 54 56 57 58 59 59 59 48 37 33 39 43 38 35 31 28 27 25 28 36 39 38 37 43 41 41
24 20 18 22 31 30 28 27 25 28 20 12 9 20 26 37 43 47 46 55 59 60 59 61 57 52 46 35 32 39 36 34 32 29 27 24 27 35 38 38 40 37 39 37
27 23 27 26 28 33 37 33 23 27 27 18 14 11 19 28 32 37 39 52 55 54 55 57 56 54 47 41 31 28 32 34 32 32 29 25 28 32 38 38 36 36 33 34
27 23 24 31 30 26 37 32 36 33 35 28 23 17 13 23 25 29 33 46 49 53 54 54 55 55 53 46 40 32 28 30 32 33 31 27 26 29 34 37 35 34 33 29
34 29 20 21 26 26 30 35 47 37 35 28 27 23 16 16 16 22 28 42 44 51 52 52 53 51 51 54 50 39 30 26 28 30 32 30 29 29 31 33 32 31 31 29
44 37 34 24 26 37 40 49 42 49 42 31 33 26 26 21 16 19 27 37 40 47 49 50 54 54 49 46 48 44 36 30 25 26 26 25 26 25 31 29 29 29 30 29
58 42 41 29 22 25 31 36 44 50 46 44 40 31 31 28 23 18 21 34 40 45 44 52 54 55 55 46 45 39 42 35 30 27 26 24 23 26 28 26 28 29 29 28
55 46 49 36 41 40 55 50 56 52 54 47 46 44 35 30 24 23 25 28 37 42 45 50 51 50 55 52 46 42 43 43 38 31 28 25 20 22 23 24 27 28 28 28
65 59 54 47 40 40 39 43 43 45 54 54 47 49 47 35 27 25 27 30 29 33 41 48 48 47 49 51 50 44 43 46 43 36 30 27 23 23 25 26 26 27 27 26
76 72 60 55 38 32 33 34 40 41 49 51 50 51 48 44 37 33 31 32 33 35 40 45 49 49 49 48 48 48 42 41 42 37 33 30 25 26 25 26 26 26 25 25
81 75 67 58 44 39 40 31 35 37 43 47 48 46 47 44 43 38 30 29 33 37 42 48 45 45 45 46 46 41 44 43 39 38 37 35 30 24 24 24 25 25 24 24
84 85 74 60 57 44 22 21 34 37 45 49 50 50 46 46 51 48 35 31 34 41 44 43 41 41 42 43 41 43 50 50 42 40 40 37 34 32 25 25 23 24 24 23
73 82 73 64 54 40 48 72 65 73 51 60 55 54 47 45 55 53 43 37 35 43 42 43 43 40 40 40 42 41 45 48 47 44 39 36 34 33 31 26 24 24 23 20
72 78 89 69 75 62 78 72 66 60 59 57 54 58 50 49 50 51 50 43 38 41 40 43 44 42 40 40 37 41 44 45 48 46 38 38 35 35 31 26 25 23 20 18
94 92 80 75 70 57 71 76 81 80 76 73 69 65 59 60 60 58 55 51 44 37 36 38 43 39 38 38 36 39 44 41 46 52 50 41 35 32 33 28 27 23 19 19
67 72 69 65 69 69 70 82 88 82 73 83 81 79 69 63 63 62 59 56 50 42 36 40 44 43 41 40 36 38 41 40 47 53 50 36 26 31 34 28 24 21 19 21
76 72 76 71 70 75 77 88 89 83 80 83 86 86 72 68 68 67 63 56 51 48 43 40 44 49 47 45 44 43 43 42 42 53 47 29 19 22 22 20 20 22 23 28
98 96 94 98 93 95 87 88 98 92 89 94 89 82 78 74 71 70 67 62 50 45 43 46 46 48 55 51 48 47 46 45 45 56 50 42 35 37 38 39 39 39 39 44
98 98 98 98 98 96 94 93 96 98 95 98 91 84 78 77 77 74 71 61 54 50 49 49 57 54 57 51 49 48 50 47 50 58 53 44 44 45 46 49 54 55 57 58
98 98 98 98 98 97 97 98 97 98 97 98 96 84 79 78 80 75 72 65 62 56 58 60 55 57 61 60 58 55 54 55 60 62 53 52 51 52 55 58 58 60 61 64

GFSCGP_prec_cthk_063.txt.gz
RH
23 20 16 19 20 16 14 16 22 32 48 60 56 68 73 65 64 54 50 46 46 50 54 54 53 49 47 45 38 34 38 41 45 50 50 58 64 60 64 67 59 51 55 51
18 17 17 18 17 17 14 17 19 27 40 52 55 59 66 62 53 49 47 46 44 49 53 52 51 49 46 45 40 36 35 38 42 46 49 57 61 63 65 61 52 54 55 52
20 17 17 19 18 17 16 15 17 24 31 51 58 58 64 78 55 54 55 50 43 44 45 49 47 46 45 44 41 38 30 31 37 42 47 52 58 65 60 61 54 51 50 49
20 20 19 18 18 19 18 17 15 19 28 37 46 60 68 65 62 55 56 53 49 42 44 48 48 45 43 43 42 40 31 27 30 34 43 45 49 51 55 53 55 51 45 47
24 21 19 19 18 18 19 20 16 13 17 29 38 45 60 60 68 57 58 55 52 51 46 39 36 41 43 44 43 40 36 30 27 28 37 41 44 45 47 49 55 51 44 46
23 32 24 20 23 20 21 20 20 18 15 16 25 38 44 60 58 56 55 57 55 58 54 51 45 42 42 43 46 42 38 32 28 26 25 32 35 42 45 45 53 48 50 45
14 16 25 28 26 25 23 23 24 24 20 15 11 24 35 42 47 61 49 56 55 58 55 57 53 47 44 36 39 42 39 35 29 27 23 25 29 31 38 45 46 50 50 50
20 20 19 20 24 29 27 25 25 28 22 14 11 11 20 36 47 47 58 55 53 55 56 55 55 56 54 43 34 36 39 36 33 28 25 22 24 29 33 39 43 44 50 47
16 18 31 28 25 26 29 32 21 28 25 21 15 12 9 21 35 45 58 57 67 55 54 54 57 57 59 55 40 29 33 36 35 33 28 25 23 25 33 37 35 43 44 47
22 23 26 30 33 30 33 34 31 28 35 30 21 18 15 12 19 32 43 51 50 70 50 59 57 58 58 57 52 40 30 33 34 35 32 28 24 23 27 33 36 36 38 36
24 25 22 20 27 28 29 31 42 39 31 32 30 21 19 17 16 23 29 40 44 52 50 60 61 62 58 58 51 47 39 31 33 34 33 30 28 26 23 30 31 33 33 35
39 32 28 24 21 22 24 31 26 45 44 32 29 25 23 21 20 24 29 32 39 43 58 59 61 61 60 59 56 48 44 37 28 29 32 31 31 28 27 25 29 31 31 30
50 43 41 32 28 26 24 28 42 39 37 40 34 30 27 27 25 23 23 27 36 43 53 60 60 60 58 59 56 50 46 41 35 28 30 31 32 30 27 26 26 27 27 26
57 55 53 43 38 44 37 30 38 41 41 39 41 33 31 35 36 32 28 26 32 40 48 55 59 61 58 58 52 50 43 41 42 34 30 29 25 28 27 26 24 25 24 24
59 60 54 48 45 50 39 39 40 41 49 53 41 45 38 36 39 42 39 36 39 48 52 52 55 63 57 57 55 56 57 51 43 37 35 27 23 24 25 23 23 23 23 23
61 61 64 68 63 51 44 37 38 42 39 51 58 53 48 46 49 42 39 47 49 45 46 53 61 62 61 57 54 57 59 53 51 42 34 33 27 24 21 22 22 23 23 23
69 79 67 68 58 54 49 38 33 26 25 26 46 44 57 56 59 61 53 51 49 45 50 53 53 58 58 58 55 53 53 55 51 44 44 39 33 25 22 21 22 22 22 23
69 75 80 84 65 69 47 31 34 37 30 27 22 34 52 57 61 69 79 54 44 41 40 42 46 49 52 55 58 54 57 53 50 43 41 40 37 33 26 24 22 21 22 23
61 62 80 85 68 56 48 62 65 63 51 34 40 27 37 51 57 57 81 58 47 42 39 38 40 46 46 48 51 54 52 55 49 48 40 38 36 35 34 29 23 23 24 24
67 70 66 68 73 66 55 78 69 62 47 68 48 51 47 56 68 62 71 64 54 46 43 42 42 46 48 45 47 50 48 48 47 47 44 44 42 40 38 35 32 26 23 22
86 88 71 64 69 63 61 78 66 74 74 73 74 61 58 52 79 78 64 60 52 47 43 36 39 48 47 48 49 44 43 44 43 51 57 53 48 44 43 42 41 37 27 28
84 90 81 73 72 69 74 65 69 79 88 84 76 68 60 55 56 54 59 56 53 50 47 41 41 50 57 53 49 47 39 42 46 49 53 57 53 51 48 42 41 40 32 30
79 83 84 78 66 71 77 74 80 78 83 77 76 71 67 63 54 57 59 58 58 59 54 48 45 48 54 52 53 48 43 47 45 46 50 56 58 58 51 43 40 41 35 33
93 88 88 82 69 78 76 75 87 91 81 77 70 70 76 72 67 65 64 60 62 62 59 55 48 46 52 55 52 49 54 52 49 46 48 54 58 58 55 46 38 38 35 32
98 98 98 96 87 85 89 91 95 97 92 81 72 69 82 85 79 78 74 68 67 67 61 57 54 48 49 54 57 54 53 55 53 51 52 53 58 57 49 43 33 30 31 29
98 98 98 98 98 98 98 92 89 95 90 87 74 74 86 91 88 84 81 76 75 72 67 55 53 52 48 50 54 53 58 58 57 54 57 58 56 52 46 46 28 27 30 32

GFSCGP_prec_cthk_066.txt.gz
RH
24 26 24 22 18 20 17 16 20 22 29 44 52 62 74 73 75 72 49 57 55 52 59 55 56 47 46 40 38 32 41 39 40 45 43 56 56 60 70 70 63 47 55 53
24 25 24 17 21 22 19 18 16 18 25 42 52 80 75 62 63 73 58 54 53 50 52 51 50 46 45 40 35 31 34 37 38 44 44 51 62 58 54 57 53 46 51 54
18 18 18 19 17 18 17 16 16 18 25 38 46 66 81 65 63 80 76 52 54 49 46 46 45 45 43 39 35 33 30 36 37 41 41 48 60 56 60 57 51 47 43 44
25 20 22 18 18 18 19 17 15 16 21 30 33 56 69 83 75 92 85 57 59 55 49 45 45 41 40 38 37 34 28 30 33 38 40 45 51 61 57 53 51 40 40 41
22 25 22 23 19 19 19 20 19 17 16 19 27 34 44 72 70 71 87 73 58 53 48 43 38 38 38 38 37 35 31 26 28 33 36 41 43 49 60 49 52 43 40 38
21 28 25 22 23 21 20 20 20 20 18 16 15 27 36 59 48 60 75 78 57 51 46 42 35 38 38 39 39 37 33 27 23 26 31 35 38 40 45 41 51 45 41 38
10 17 26 31 24 23 24 22 22 23 21 14 12 12 19 35 48 50 62 64 59 54 49 47 42 39 36 35 34 35 34 30 25 21 24 29 32 37 37 40 50 47 40 43
23 21 14 16 28 27 25 25 25 27 21 16 13 14 11 14 43 50 57 77 81 56 56 52 47 44 41 38 33 30 34 32 29 25 21 23 25 28 32 37 39 46 40 43
20 18 26 24 20 24 27 32 22 24 25 20 20 16 12 11 25 49 59 55 58 80 64 59 57 52 48 46 40 33 26 32 31 27 24 22 21 21 28 30 35 38 40 43
20 20 20 28 32 26 26 26 36 30 33 30 25 23 20 17 12 28 52 52 57 78 66 84 61 59 56 52 51 50 36 26 31 31 28 23 22 20 21 25 28 34 35 39
24 22 17 24 28 31 33 29 34 40 35 28 29 26 21 20 17 16 35 38 39 37 72 85 84 61 57 59 55 53 48 34 27 32 31 29 24 22 22 23 24 27 32 36
37 31 27 20 23 26 26 36 36 44 43 39 29 26 21 22 21 18 19 33 38 43 41 72 49 52 50 54 52 52 47 40 32 26 31 31 30 26 22 21 22 25 26 29
45 39 38 30 25 22 23 21 28 30 35 43 42 30 21 26 26 22 20 22 32 48 46 58 79 68 47 48 48 51 52 45 41 33 29 33 32 30 26 22 22 24 24 25
40 42 44 49 41 45 38 35 25 28 34 31 33 37 27 28 33 29 27 27 38 46 53 51 64 70 75 53 47 48 53 50 44 41 33 29 29 28 28 27 23 24 24 22
40 42 44 43 44 52 44 41 38 31 26 39 31 34 29 37 44 39 35 33 32 39 46 47 54 63 78 53 50 48 51 50 46 42 38 28 24 27 28 29 27 25 23 22
61 55 50 50 47 55 53 44 38 33 27 34 38 37 35 44 57 45 48 49 47 44 50 51 53 59 61 61 57 52 51 49 50 47 41 37 33 29 28 27 29 29 24 22
67 66 69 65 54 56 59 49 43 35 28 29 38 36 42 50 60 56 57 66 62 60 50 52 48 61 59 72 65 66 60 53 51 50 48 48 38 33 28 27 26 27 24 21
62 65 69 77 65 79 41 43 46 39 31 29 28 31 41 51 61 60 60 63 72 70 60 52 49 44 60 85 64 71 65 58 53 53 52 45 42 39 33 29 26 25 24 22
63 66 74 78 62 62 56 49 63 74 52 37 49 37 27 41 52 61 70 72 73 80 65 57 58 54 51 64 65 67 59 56 52 51 51 47 42 43 39 34 26 24 24 24
68 62 70 75 69 71 48 74 70 69 58 70 69 55 42 47 46 69 75 75 74 71 67 57 50 50 50 56 62 61 59 60 52 47 49 51 47 41 39 37 35 30 24 20
79 74 72 76 74 54 69 71 70 74 68 76 70 74 62 64 85 79 66 70 76 74 68 57 51 48 48 52 50 47 54 52 53 54 52 52 51 47 44 42 41 37 34 28
80 81 82 81 94 70 73 63 75 88 86 79 74 79 81 66 72 72 71 63 68 76 75 60 49 46 44 48 48 45 43 49 53 57 51 49 52 56 55 50 49 43 42 37
90 88 93 85 73 77 75 76 72 74 74 74 77 75 87 75 65 60 58 65 73 73 70 60 52 50 47 44 48 48 49 47 49 55 52 48 51 58 60 57 55 51 44 42
91 89 87 81 70 84 81 79 72 64 66 70 76 81 79 76 70 59 51 45 59 64 63 54 50 51 50 50 50 54 50 45 43 50 49 46 48 51 55 61 59 56 50 43
97 96 97 92 83 81 80 76 67 63 61 70 77 84 80 72 64 59 57 49 46 60 61 54 50 46 48 51 53 56 55 49 46 49 51 47 48 48 52 57 59 57 56 47
97 97 97 98 98 97 95 91 84 76 81 83 79 79 76 70 62 55 54 55 54 52 57 57 53 50 50 54 53 56 61 58 59 57 57 54 48 49 52 55 58 59 58 55

GFSCGP_prec_cthk_069.txt.gz
RH
22 25 28 27 22 18 20 22 24 23 27 34 54 69 65 69 66 72 89 64 57 61 64 63 58 49 42 37 34 32 29 30 38 40 44 51 52 51 53 59 53 45 46 63
27 25 24 24 23 22 19 20 20 20 21 31 47 62 58 60 67 78 97 81 54 55 56 54 57 47 43 37 35 32 28 31 36 40 38 46 50 54 58 66 50 43 45 55
22 23 22 23 23 19 21 21 19 19 20 31 53 66 65 60 58 74 82 93 64 48 52 57 55 49 44 39 35 31 27 30 34 38 42 49 54 53 52 50 53 47 47 48
23 19 22 24 22 20 20 19 18 16 19 26 37 62 73 60 62 70 77 87 71 59 51 52 53 47 43 39 36 34 26 28 32 35 35 42 51 51 53 54 47 43 38 41
25 21 24 23 22 19 19 19 20 20 19 19 24 30 55 69 69 56 56 71 63 61 55 47 55 45 40 40 37 34 28 24 29 33 33 38 44 48 49 45 49 43 37 38
22 23 22 23 22 24 21 20 19 21 23 24 20 24 58 55 49 53 48 51 56 59 62 51 47 48 43 40 40 36 31 24 24 30 31 34 40 46 50 47 52 42 43 42
18 19 21 22 24 21 23 23 26 27 25 22 17 20 19 34 45 45 47 50 54 59 55 56 48 47 46 39 37 37 33 27 20 24 28 28 32 39 39 43 35 42 42 40
20 19 17 26 26 28 24 25 29 28 26 21 19 19 14 20 27 35 47 48 59 63 60 70 43 44 46 40 35 34 34 31 24 18 21 24 26 32 34 33 34 39 39 32
25 24 20 20 21 25 29 29 24 27 21 27 25 20 17 17 23 28 36 46 59 58 64 75 82 48 48 45 38 32 32 34 29 21 18 19 22 27 28 31 33 35 39 34
27 24 25 24 21 21 21 22 34 33 31 32 26 23 24 23 26 31 37 45 61 72 54 82 84 76 64 53 49 45 35 30 32 29 21 19 17 18 24 26 29 32 36 37
22 24 20 25 27 29 30 28 35 35 34 36 31 23 18 29 26 27 32 35 46 52 49 55 70 74 72 68 65 55 50 36 29 32 28 22 20 18 17 22 24 27 30 35
30 27 26 19 23 26 29 29 28 39 37 37 40 30 20 27 28 31 36 34 37 46 54 50 40 64 61 65 64 61 56 49 34 27 31 29 23 20 19 17 22 23 25 28
35 36 39 28 18 27 29 29 32 32 33 34 40 31 25 31 34 38 48 59 54 38 50 53 58 42 48 59 61 66 62 52 44 34 27 31 29 24 20 19 19 21 21 24
29 34 36 38 33 36 39 33 30 33 32 30 34 30 22 35 36 38 44 46 40 47 47 49 52 45 40 53 59 67 70 62 54 43 32 26 28 27 24 21 20 19 20 21
38 35 32 29 27 33 40 36 34 36 32 32 30 29 29 40 40 41 44 51 56 55 72 73 67 63 52 61 58 68 79 68 62 48 38 32 27 29 30 27 24 21 20 20
51 53 50 45 35 32 42 44 39 38 28 27 26 27 39 38 44 43 48 48 62 69 78 94 81 66 61 54 58 68 74 77 69 51 48 39 34 26 27 29 27 25 23 21
53 58 65 62 56 55 45 46 43 40 33 28 28 26 39 38 41 46 56 56 61 72 80 80 82 78 71 81 74 69 81 75 72 62 56 47 42 32 25 26 28 26 27 25
52 57 61 69 73 75 40 41 55 49 43 49 42 42 50 52 50 47 58 60 62 64 70 70 73 82 82 90 82 78 74 74 72 69 59 53 50 45 36 28 27 28 26 27
56 61 69 83 81 59 44 40 60 70 69 68 66 55 51 52 50 50 58 65 63 63 63 71 63 64 72 78 75 96 75 81 74 68 69 65 58 48 42 37 32 27 28 26
62 66 73 80 95 77 56 60 65 66 78 78 71 69 55 56 62 65 62 64 63 60 60 63 63 59 62 63 70 73 68 61 67 68 69 69 60 53 45 43 41 36 28 24
75 77 80 81 88 67 61 58 65 77 82 86 79 78 70 67 67 65 61 60 63 65 61 61 65 64 64 59 58 83 71 48 49 66 76 71 61 52 48 44 45 42 38 31
92 94 91 83 90 91 77 71 72 80 76 78 80 81 73 63 65 60 60 60 62 62 65 64 65 67 57 64 71 64 72 72 74 71 66 67 62 59 52 46 42 42 40 37
92 96 93 93 96 98 92 82 76 71 71 69 69 77 73 65 64 64 63 57 60 64 66 67 71 69 56 56 61 64 63 78 67 64 60 61 64 63 56 53 51 50 48 42
87 87 89 88 83 88 91 89 82 83 67 67 64 66 66 68 66 68 64 60 61 61 61 65 68 64 57 51 55 53 54 57 49 47 56 62 64 61 57 54 55 55 52 49
85 86 87 90 90 89 86 83 78 74 75 64 61 63 64 68 67 71 69 65 62 61 62 64 64 65 60 50 51 47 46 47 47 42 44 52 57 58 56 57 57 56 56 52
69 73 84 85 88 93 93 93 92 88 85 74 62 58 63 63 73 74 74 72 66 60 58 56 53 56 63 56 49 47 48 44 47 46 48 48 51 59 57 56 54 53 57 60

GFSCGP_prec_cthk_072.txt.gz
RH
26 27 28 28 27 25 25 27 29 32 34 40 48 58 64 76 68 73 77 78 59 60 67 68 61 52 48 46 44 39 34 35 37 42 42 51 52 45 50 53 48 48 58 56
27 27 24 25 28 25 21 24 26 29 29 35 51 60 69 74 73 69 68 73 63 62 63 66 61 58 45 44 43 40 32 31 33 41 40 50 56 49 53 57 43 43 55 53
29 24 24 25 26 27 24 24 22 28 33 38 47 69 74 74 76 74 74 66 63 59 57 62 60 56 50 47 44 39 32 29 32 43 40 50 49 50 57 51 44 43 47 54
27 20 24 24 25 26 27 20 20 23 25 27 42 68 79 80 77 75 73 68 75 70 52 62 62 56 50 45 46 42 34 29 32 38 40 43 45 49 50 50 48 45 44 51
25 21 22 24 21 22 22 22 20 20 23 25 31 29 47 65 70 67 69 65 65 63 51 46 50 53 49 48 45 43 38 31 29 37 37 42 48 51 48 49 47 40 37 38
21 21 19 21 22 24 22 21 21 22 23 25 26 25 37 51 47 58 66 66 68 65 60 47 46 51 47 46 48 43 40 32 28 36 38 41 41 47 49 46 41 40 38 39
20 21 21 20 21 22 22 23 26 25 25 25 25 28 23 31 33 42 55 64 68 71 69 64 55 41 49 44 43 42 40 36 28 28 36 36 42 47 49 45 45 41 39 40
24 21 25 21 21 23 27 26 28 26 26 26 20 26 25 26 27 32 37 45 60 63 68 68 58 46 45 43 40 39 38 38 33 25 31 33 36 43 45 44 42 38 37 39
24 22 21 21 25 23 27 29 26 26 26 28 24 19 16 22 25 24 30 39 46 46 50 66 59 47 41 44 41 36 36 36 35 32 23 30 30 34 40 41 36 33 37 38
25 24 23 21 25 25 28 29 32 32 33 35 29 23 23 29 31 32 36 34 42 45 45 58 56 59 56 43 42 42 40 38 36 36 32 23 27 28 36 38 36 32 37 40
24 24 27 24 28 29 28 30 32 31 35 39 34 26 30 39 40 40 40 32 39 47 49 48 47 52 59 53 42 40 39 36 38 39 37 32 23 25 29 34 34 32 35 40
26 25 24 29 28 29 30 33 32 35 34 39 39 35 33 45 43 42 42 31 36 48 53 63 56 47 52 50 49 43 43 41 32 37 42 38 31 24 23 26 30 31 34 37
28 31 32 22 28 33 35 36 37 35 34 34 36 34 31 42 48 52 51 48 44 43 52 64 63 56 48 50 50 50 49 50 46 35 36 40 38 32 24 22 24 28 32 35
25 29 30 33 30 27 32 38 38 38 40 39 37 34 32 38 45 50 57 49 41 42 51 68 61 59 44 53 60 59 55 56 55 49 43 36 37 37 32 25 23 24 27 29
32 31 29 27 28 26 26 29 38 38 38 40 38 38 37 40 42 48 55 55 57 61 68 70 64 63 57 53 53 61 62 60 60 58 54 49 38 36 39 35 28 23 23 25
38 39 37 37 34 33 28 23 25 35 40 44 40 41 45 43 50 55 58 59 63 75 70 70 68 71 69 59 65 61 68 67 67 64 58 55 52 38 32 35 36 32 25 22
40 42 45 48 42 38 34 22 25 26 49 57 60 50 46 46 58 57 60 66 71 71 72 73 68 66 74 68 67 66 69 71 69 67 62 56 55 47 38 32 33 34 32 28
39 45 51 55 51 57 29 32 33 35 60 70 64 55 47 49 67 62 63 64 71 71 67 65 75 82 77 74 69 70 69 73 72 76 71 66 62 61 51 39 30 29 31 32
46 47 56 59 59 48 42 40 44 46 64 72 72 63 52 52 60 64 66 65 70 70 72 66 69 73 79 77 76 74 75 73 72 73 69 76 75 68 63 54 41 31 28 28
53 57 62 64 71 72 49 60 67 62 77 66 76 73 60 49 65 66 67 69 70 74 73 69 70 70 66 68 76 85 78 74 71 71 74 71 74 81 70 61 55 48 36 28
64 66 67 71 79 72 68 63 64 73 70 67 69 78 73 60 56 62 67 71 73 75 77 76 73 73 65 61 56 66 72 68 64 68 70 71 74 74 69 62 63 60 50 42
70 77 82 85 84 85 78 72 72 71 69 63 65 70 75 68 61 58 59 65 73 74 75 77 74 71 74 68 57 52 62 60 57 51 58 67 70 76 73 63 60 63 57 51
76 71 75 80 91 90 81 84 80 76 72 68 63 64 66 70 68 68 50 57 63 71 72 76 73 71 66 66 60 54 47 56 62 71 65 66 72 79 72 67 60 61 55 49
60 68 74 78 78 83 85 85 80 77 80 69 63 63 64 64 67 66 64 50 52 62 69 71 74 72 68 70 68 59 46 49 59 63 67 65 69 83 70 68 64 62 58 51
56 62 62 68 73 81 83 88 86 82 77 73 70 66 62 62 60 61 62 57 51 51 62 68 70 69 68 69 74 65 61 49 53 61 59 61 71 74 76 72 66 64 58 56
58 63 65 62 59 74 81 83 85 87 84 81 75 70 69 65 55 56 57 56 55 56 54 58 66 62 60 64 66 77 65 60 52 53 59 63 58 59 61 70 67 59 57 65

GFSCGP_prec_cthk_075.txt.gz
RH
24 32 34 32 30 31 33 36 40 45 35 32 45 51 61 66 79 77 72 70 64 55 63 67 67 54 47 47 48 45 39 39 44 43 50 56 54 53 54 56 60 62 61 55
28 32 31 32 33 30 29 31 36 37 40 40 52 49 58 64 73 74 77 75 69 59 56 58 63 57 46 46 46 45 44 39 41 37 42 52 53 53 60 58 52 62 59 54
28 29 33 31 30 31 27 25 36 40 37 49 51 60 64 62 73 70 74 77 73 74 57 57 55 57 51 45 43 44 44 39 39 39 40 46 59 58 63 53 48 54 58 51
29 28 28 28 29 29 29 22 32 36 30 29 45 68 64 64 68 63 72 77 75 73 64 58 53 52 51 47 42 44 45 42 37 36 40 43 50 53 56 54 49 47 54 59
30 23 28 26 24 27 25 24 24 32 30 27 29 42 48 71 72 66 66 74 78 72 71 57 54 49 48 48 44 44 44 45 38 34 35 42 44 48 52 57 52 50 50 53
24 22 22 24 25 24 24 25 24 25 28 29 26 26 30 56 53 49 60 68 75 71 66 58 53 51 49 49 45 46 45 45 41 34 34 40 41 44 51 51 53 48 42 41
24 25 23 20 20 22 24 25 27 26 29 29 26 26 24 34 39 38 40 56 68 69 68 63 58 46 44 43 40 44 44 44 41 38 33 34 37 43 52 52 54 48 44 42
26 26 25 23 22 24 24 26 28 25 29 29 28 28 26 26 29 29 33 38 62 69 66 64 59 52 42 40 41 42 45 42 40 35 33 32 33 41 47 51 50 48 46 45
25 25 26 25 24 26 29 32 27 29 29 28 28 28 27 33 35 33 33 34 40 51 61 59 65 56 42 39 38 39 43 46 42 37 32 29 32 40 44 48 49 49 48 45
26 24 27 27 27 28 30 30 32 32 34 33 30 33 41 40 41 42 38 37 35 40 49 52 65 59 46 37 35 37 39 43 46 42 36 32 28 32 37 43 43 43 43 44
26 25 29 27 31 31 34 34 35 35 39 40 38 40 37 44 43 43 41 37 32 34 37 50 62 62 58 65 54 42 37 39 38 40 39 37 32 25 29 35 39 39 40 41
25 28 35 34 31 30 29 33 36 42 41 43 45 40 30 32 34 38 39 36 33 34 37 47 62 67 64 68 71 57 46 35 36 38 38 37 35 32 23 28 33 36 36 38
27 30 33 36 34 32 33 33 33 38 42 46 46 37 28 31 33 38 44 40 35 36 39 48 60 71 71 62 68 72 62 51 41 37 39 40 36 34 31 23 23 30 33 34
28 32 29 33 36 36 39 39 36 37 45 44 41 37 38 40 40 41 46 50 47 48 51 55 62 72 77 66 67 70 68 66 59 51 41 38 39 37 34 32 26 21 25 29
28 32 30 29 28 29 32 34 37 38 38 43 37 37 52 52 49 47 51 56 59 58 61 62 65 74 76 71 71 70 68 70 66 62 54 42 37 38 39 36 34 30 22 23
32 40 35 34 29 26 25 24 26 27 31 35 40 41 49 53 57 48 51 56 60 66 66 66 67 77 77 79 72 73 68 66 68 65 61 58 49 45 40 39 37 36 33 25
36 39 40 37 34 27 24 23 22 24 28 27 39 47 51 54 54 52 52 54 56 62 67 66 64 70 80 81 78 72 71 68 65 66 67 63 60 54 49 46 43 40 38 36
39 40 44 44 38 42 29 28 27 37 40 41 41 41 54 60 58 52 51 52 57 61 66 69 67 66 69 78 83 83 78 72 66 69 70 68 64 60 54 48 44 42 40 37
41 43 48 51 51 40 33 32 37 41 48 44 45 50 42 57 65 56 54 51 56 61 63 71 70 68 68 66 71 80 80 76 70 68 70 75 67 61 58 51 43 42 44 41
51 50 52 57 59 57 42 49 49 49 52 48 49 49 50 51 74 70 56 54 54 62 61 64 70 68 65 65 64 67 80 81 80 74 79 77 70 64 61 55 49 41 43 44
58 58 58 60 65 57 57 54 53 56 52 60 65 64 57 53 65 73 62 55 53 56 64 62 65 66 69 63 72 78 75 83 81 80 79 81 75 74 69 65 61 55 49 48
56 60 66 67 70 65 62 61 65 65 65 63 69 70 65 59 58 69 72 60 55 51 56 65 64 65 67 68 63 67 76 79 87 84 83 80 81 77 79 77 75 63 55 55
58 55 58 60 62 62 64 66 70 70 69 70 69 71 67 59 57 61 70 68 55 52 52 59 65 66 65 70 71 69 59 58 75 79 76 70 65 68 72 76 73 67 60 55
46 47 47 46 37 45 55 64 70 74 76 72 72 69 67 61 58 59 58 68 64 53 51 49 58 67 66 66 72 72 64 61 61 63 65 70 65 63 66 66 69 70 58 56
50 52 53 51 45 43 42 50 67 76 79 80 80 72 71 66 59 61 57 57 62 57 52 51 51 60 62 66 65 71 71 58 58 57 53 55 54 65 62 63 62 72 61 62
49 49 53 51 47 51 50 50 57 64 76 84 83 80 74 68 65 66 60 56 57 58 57 51 53 52 58 62 64 64 66 68 63 54 45 45 48 58 68 67 69 72 67 66

GFSCGP_prec_cthk_078.txt.gz
RH
20 28 30 28 32 34 36 43 44 42 37 39 49 55 63 63 70 77 75 70 60 64 74 71 62 49 45 47 44 42 38 36 36 40 58 48 58 54 52 54 59 65 63 63
25 29 33 35 32 31 33 43 46 40 42 40 51 56 54 61 66 78 81 73 73 62 69 72 61 52 44 42 45 43 43 43 40 40 48 49 47 55 57 58 63 61 59 57
25 29 36 35 35 31 31 37 45 42 36 47 49 58 56 64 67 77 81 80 78 69 62 70 64 60 47 41 42 43 41 42 40 36 43 48 53 56 61 54 54 57 55 52
27 30 37 36 34 32 31 27 38 38 34 29 44 51 57 56 66 70 75 79 79 75 68 65 67 63 58 47 40 43 45 47 42 39 38 38 47 53 56 51 50 58 56 54
31 29 31 33 28 29 31 28 36 33 32 29 33 42 41 55 66 69 69 73 79 75 75 61 63 61 60 53 43 41 43 49 48 41 38 38 43 49 52 58 49 50 57 63
27 22 25 26 26 27 28 27 31 32 32 33 29 34 30 60 65 56 55 63 72 77 73 63 59 61 60 56 47 41 40 45 50 46 39 37 39 42 47 52 50 51 53 56
28 25 23 21 23 25 26 28 32 33 37 35 33 29 35 37 44 45 40 51 66 81 75 64 50 50 52 51 47 42 42 40 48 50 43 36 37 39 40 43 48 50 45 43
32 28 26 23 25 24 26 27 31 29 34 35 33 29 36 38 45 48 44 38 53 72 75 71 61 52 47 49 47 44 42 40 42 49 47 40 36 37 38 42 47 48 45 42
32 31 29 26 26 26 29 30 29 32 31 30 31 35 30 31 34 41 43 43 45 70 70 72 71 64 50 45 44 44 45 43 40 43 46 43 36 36 35 38 44 47 44 44
29 31 28 29 28 28 30 30 32 33 34 33 34 41 41 30 29 36 39 41 42 53 61 65 74 72 56 47 46 46 48 47 44 42 44 44 40 32 34 37 39 44 43 46
30 30 30 30 34 34 33 36 34 36 36 37 44 40 32 34 37 38 42 40 42 39 42 54 67 67 63 54 48 46 48 50 48 45 46 47 43 37 32 35 35 37 39 41
31 34 41 36 34 33 33 37 39 39 35 39 40 35 32 41 42 43 44 43 41 39 39 45 60 68 69 69 59 50 49 50 51 50 47 47 48 45 37 31 31 31 32 33
31 35 39 38 35 34 36 35 37 40 40 40 42 38 31 40 42 45 45 46 46 47 47 46 51 67 73 72 71 69 61 53 54 52 51 49 48 45 42 36 28 28 30 30
34 36 33 37 37 40 41 35 33 36 40 43 40 36 40 44 45 45 48 51 54 53 56 55 53 58 74 79 75 76 72 65 57 60 55 53 51 47 44 42 36 30 27 27
33 39 36 34 33 34 36 34 33 33 34 36 38 39 45 48 48 51 52 54 56 57 61 64 62 60 61 74 78 76 76 76 73 62 52 47 49 49 49 46 42 39 34 26
32 38 32 35 33 30 30 30 30 30 30 33 34 44 46 48 48 46 47 53 58 60 59 62 65 67 66 70 80 75 75 74 72 72 64 56 52 50 47 45 44 42 40 36
32 34 35 36 37 30 28 24 25 25 26 25 29 35 37 41 46 47 46 48 54 58 62 60 60 65 64 68 71 82 79 74 72 69 67 67 67 58 50 50 46 40 39 38
33 37 39 40 34 29 25 26 24 28 31 31 31 33 34 33 32 39 48 47 49 53 59 60 60 61 63 62 66 77 81 78 75 72 72 70 70 67 65 54 50 48 42 38
38 40 45 45 43 36 30 37 38 38 35 37 38 42 39 35 33 36 38 44 49 50 55 60 62 62 64 63 60 69 86 83 81 79 76 77 75 72 72 67 58 51 51 45
46 44 45 48 47 45 35 43 43 45 47 42 40 39 39 37 37 40 42 42 42 49 51 54 58 63 64 63 60 62 75 86 88 84 83 81 77 76 75 73 70 69 56 51
57 55 54 55 56 49 48 48 48 51 44 49 49 48 48 47 43 38 40 40 43 46 48 50 50 57 63 68 65 60 63 71 84 88 91 86 83 80 79 78 75 69 67 65
51 55 59 59 63 58 51 53 55 55 54 54 54 52 51 52 48 45 41 40 42 44 44 43 46 50 56 64 67 68 66 66 70 76 89 92 88 87 86 82 79 70 69 63
54 49 51 51 49 46 41 40 45 53 59 60 58 56 56 55 51 49 47 43 41 42 46 46 42 45 51 59 67 71 72 68 68 65 66 79 89 89 85 84 83 77 71 72
43 43 43 40 34 36 38 36 37 44 53 60 63 64 64 63 60 51 49 51 47 43 40 48 47 42 48 51 63 68 72 70 68 64 70 70 74 77 83 86 79 83 79 76
42 45 45 44 39 41 42 43 42 42 41 44 56 66 67 69 66 61 53 50 49 46 42 40 43 44 43 50 55 69 70 67 69 67 72 71 69 75 72 76 72 74 71 75
43 43 46 44 40 40 41 44 46 47 41 38 42 54 67 73 74 69 64 59 55 49 44 40 38 40 45 45 52 60 67 67 65 68 71 67 60 61 71 62 66 72 69 74

GFSCGP_prec_cthk_081.txt.gz
RH
18 23 20 26 29 32 37 44 42 42 44 48 49 52 59 67 79 80 80 69 70 67 70 71 65 51 40 39 36 34 30 28 32 40 40 47 58 55 57 57 65 64 61 58
19 22 25 27 32 32 34 44 40 39 44 42 55 60 61 62 68 78 81 78 68 70 70 70 66 55 43 40 39 39 34 32 35 44 56 47 52 57 53 55 58 60 57 54
19 22 29 34 32 32 32 39 41 37 37 50 53 59 65 65 69 78 81 82 77 67 71 70 64 59 49 43 42 41 39 38 39 44 49 47 48 56 58 59 57 56 53 54
21 28 33 34 34 32 32 34 42 37 32 29 46 39 61 64 70 75 83 82 82 72 67 69 65 59 51 44 44 43 43 42 41 40 46 45 48 56 56 54 51 52 50 49
27 26 36 38 34 35 33 31 38 38 31 28 35 39 39 65 68 74 78 81 85 82 70 69 67 63 59 48 44 43 44 46 46 41 41 40 46 53 56 54 49 53 54 55
27 26 32 34 38 35 33 29 31 35 30 29 28 35 44 48 54 62 66 71 72 82 81 78 72 69 65 59 52 46 43 45 49 47 42 38 41 48 51 56 52 51 55 57
28 24 24 26 31 31 32 30 30 35 31 28 26 33 50 50 55 59 53 47 56 71 80 82 72 66 63 56 53 50 44 44 48 49 48 41 42 42 46 48 54 52 51 52
32 27 25 24 24 26 31 29 25 34 30 26 28 35 42 38 48 54 54 50 55 64 78 76 71 66 59 58 55 51 46 43 47 50 52 47 43 40 42 44 44 50 52 43
33 30 28 26 25 26 28 28 26 25 27 26 29 34 38 35 40 51 50 52 49 63 75 70 67 58 55 55 54 53 48 44 41 47 50 50 45 40 37 40 46 47 49 45
35 32 30 28 28 28 28 28 29 26 30 29 35 36 34 40 42 47 52 54 50 52 68 75 73 69 58 52 54 53 52 51 44 43 46 50 49 45 37 38 39 45 52 50
30 31 32 32 32 33 30 31 30 29 28 29 31 32 36 46 49 47 54 58 54 48 54 65 77 80 72 59 52 50 49 52 52 48 45 48 51 48 43 35 37 37 44 50
32 32 34 33 33 33 31 33 33 30 34 32 29 30 40 44 48 46 47 48 51 52 53 59 69 77 82 70 59 52 51 52 52 54 52 48 51 53 50 44 35 36 39 42
35 34 35 34 31 31 33 32 31 32 32 35 28 30 40 44 46 46 45 46 49 52 55 56 60 72 76 74 65 56 52 52 54 56 55 56 53 52 52 49 46 35 34 36
38 36 34 30 34 34 32 31 33 31 32 35 34 34 40 43 46 46 47 48 49 50 52 57 58 59 74 74 66 63 61 59 59 56 54 55 53 52 53 52 51 46 37 32
43 46 40 38 36 34 35 32 31 33 35 35 37 39 48 48 48 47 48 49 50 50 51 52 56 58 62 74 78 79 76 73 70 69 64 54 53 52 50 54 52 50 46 39
40 44 42 39 33 30 30 32 32 32 31 34 37 42 48 51 51 52 48 50 49 51 52 52 52 56 59 66 75 81 83 80 78 73 66 63 67 58 54 50 48 49 47 45
36 33 33 33 33 28 24 24 26 29 35 34 32 40 45 47 48 48 47 47 49 49 50 53 54 54 55 62 65 73 79 84 80 81 77 67 66 58 52 50 49 46 44 43
32 32 34 34 30 25 24 23 23 24 31 34 36 39 41 43 42 45 43 44 46 48 50 50 52 54 57 55 59 67 72 74 87 86 82 79 76 68 60 52 49 48 46 43
33 33 40 37 28 28 26 30 30 27 28 32 33 34 33 32 30 37 37 35 34 36 43 49 51 53 55 56 54 56 65 71 80 87 85 80 80 79 75 69 63 50 51 51
39 37 36 39 38 30 29 33 32 34 30 36 36 36 35 32 29 36 35 34 33 33 33 36 42 46 50 54 57 54 55 63 75 79 88 88 86 82 79 75 75 70 64 53
51 49 45 44 41 34 32 37 38 34 36 40 40 39 38 38 37 32 32 32 31 29 28 28 33 38 42 44 52 53 52 54 61 68 79 87 87 88 88 86 81 79 74 72
48 51 52 52 49 43 39 41 43 43 42 41 41 40 39 39 39 37 35 34 33 32 32 29 25 31 38 40 42 50 52 53 58 64 66 74 87 90 88 89 88 85 81 75
48 44 49 45 42 41 39 33 32 32 34 36 39 42 43 44 42 40 39 36 35 34 33 32 31 28 33 38 38 42 48 52 55 62 62 64 68 75 78 91 91 90 86 84
39 37 37 34 31 31 28 27 27 28 29 31 31 33 38 42 45 46 45 43 41 38 37 34 32 30 30 35 40 39 43 49 56 61 66 64 66 67 74 78 83 87 85 85
42 43 43 37 30 31 30 32 34 32 34 35 32 31 34 35 38 43 47 48 47 45 42 38 36 33 31 32 37 42 44 46 53 59 64 66 66 69 72 70 71 78 85 85
43 45 45 42 35 36 37 36 37 39 43 41 38 37 39 39 39 39 39 46 52 51 50 48 44 40 36 35 33 39 49 48 48 56 61 64 63 66 70 70 67 70 78 81

GFSCGP_prec_cthk_084.txt.gz
RH
18 19 15 18 22 45 44 46 47 58 60 53 53 58 69 83 80 79 82 80 74 69 66 68 62 51 42 37 31 31 33 34 37 42 46 57 63 63 67 65 64 62 64 55
18 20 18 24 31 34 39 43 39 45 45 40 47 52 62 78 76 82 80 75 76 69 70 72 66 57 42 34 31 33 34 31 31 40 46 57 62 63 66 64 62 62 60 55
19 19 25 27 31 25 35 42 39 41 40 45 50 59 65 61 76 81 87 78 74 70 69 74 71 62 47 41 37 39 38 34 32 46 54 49 54 59 60 62 62 60 54 56
21 25 25 28 29 27 34 41 38 34 33 47 46 69 70 69 75 83 82 86 82 75 74 73 73 67 51 44 42 45 46 41 38 45 53 52 53 63 67 65 63 57 54 52
25 26 30 31 33 28 37 33 38 34 31 28 38 49 65 71 74 82 85 90 86 80 71 74 72 69 54 48 45 44 46 46 44 40 47 49 52 64 65 61 60 61 56 56
37 27 36 37 39 32 35 27 33 32 30 30 32 42 53 61 67 66 75 77 80 81 75 73 73 73 64 51 47 48 46 47 48 43 44 46 49 59 64 59 58 60 63 62
28 32 32 36 42 37 30 26 30 37 31 28 31 38 56 52 54 59 64 68 67 77 79 76 75 73 68 58 48 48 47 45 48 49 43 43 42 48 58 61 58 57 63 63
29 26 26 27 33 35 30 26 28 34 32 30 28 43 43 47 53 57 54 54 55 60 77 82 81 78 74 69 57 51 46 45 45 48 48 44 43 45 50 57 58 60 62 62
40 30 24 24 26 29 30 31 31 30 30 27 28 44 39 46 52 55 63 60 62 64 69 79 86 79 72 70 65 56 50 48 46 47 49 51 47 43 47 50 49 51 54 60
36 33 28 24 26 28 31 32 30 24 32 32 34 39 42 45 49 54 67 64 62 57 67 82 84 80 78 71 70 66 58 50 48 46 49 50 50 47 43 43 44 49 52 52
36 32 30 29 28 28 28 28 27 28 26 28 39 36 42 50 52 54 57 67 60 60 64 80 83 83 73 70 68 66 63 55 55 49 47 51 52 50 48 43 40 43 47 53
32 36 35 32 29 28 28 30 30 29 29 27 28 42 46 48 50 52 55 56 65 65 62 66 78 81 93 80 68 63 64 58 55 56 52 52 54 55 55 49 45 39 39 44
31 32 35 33 30 32 31 30 29 28 32 32 29 44 46 50 47 50 51 54 57 66 65 64 67 78 84 83 85 70 62 60 57 56 57 56 54 55 51 52 51 46 40 36
36 33 38 36 35 31 32 30 30 30 31 39 36 48 47 48 51 49 51 51 53 55 57 60 66 68 74 79 82 80 71 63 60 57 56 55 54 48 48 56 51 51 49 43
42 39 35 37 35 32 30 29 30 32 35 38 45 44 49 50 46 47 50 51 51 51 52 53 55 60 66 75 83 79 75 66 58 58 57 55 55 55 54 45 58 51 49 48
40 47 40 35 32 32 31 30 29 32 34 35 39 49 52 49 48 47 48 48 48 49 49 51 53 53 54 58 69 84 81 78 67 64 64 64 61 59 53 52 49 47 50 46
43 40 42 39 35 27 26 28 29 29 31 35 42 48 51 49 49 49 47 44 47 47 49 50 51 52 52 54 58 65 80 86 89 89 84 82 80 75 70 57 54 52 45 47
37 37 34 33 29 29 36 30 26 28 35 36 41 43 45 46 46 48 44 42 41 43 45 47 47 50 49 49 50 55 60 72 84 88 89 86 84 82 74 66 68 63 56 51
28 31 31 31 23 27 25 25 26 24 34 38 40 39 40 40 40 47 43 43 42 40 38 39 40 42 47 48 49 50 51 57 64 77 83 86 86 85 79 76 77 73 59 54
30 33 34 29 35 29 29 27 25 23 27 31 30 34 34 34 33 53 49 42 39 37 35 33 31 33 36 40 44 47 50 53 56 59 75 78 78 78 86 84 83 86 83 73
37 37 37 33 35 30 32 29 28 25 39 36 32 31 29 27 30 36 32 28 27 26 25 27 27 27 27 30 35 39 44 48 51 51 56 70 77 79 87 85 81 81 84 86
46 47 43 40 41 42 33 31 30 40 35 32 31 31 30 30 30 31 31 30 29 28 28 27 23 23 26 27 28 31 36 42 45 46 52 55 63 74 82 84 86 89 86 82
47 44 50 42 44 42 37 38 37 34 31 32 30 32 32 32 32 33 33 34 33 32 31 29 28 24 23 25 27 27 30 34 39 40 45 52 58 58 65 69 76 85 88 90
36 37 37 39 35 39 36 31 28 26 26 27 28 28 27 28 29 30 31 32 34 35 36 34 31 32 28 26 26 25 26 29 33 40 39 46 48 50 57 58 65 67 76 82
43 39 39 37 31 32 34 29 28 29 28 28 29 27 27 28 30 30 29 29 29 28 32 36 36 36 36 35 32 29 27 25 26 32 39 41 45 51 51 61 61 60 63 68
49 46 43 42 34 30 33 32 34 35 36 37 35 32 33 32 32 31 29 29 29 25 26 30 34 38 38 38 38 38 35 32 27 25 28 37 41 42 49 57 67 60 57 57

GFSCGP_prec_cthk_087.txt.gz
RH
17 16 16 19 23 35 43 45 50 59 53 59 71 60 78 80 87 86 86 83 75 72 67 59 52 49 45 39 37 40 42 41 44 48 54 63 68 67 66 65 65 67 68 55
18 17 17 16 23 39 43 40 46 50 51 55 56 63 71 80 77 81 82 81 79 73 67 68 62 53 49 39 33 37 39 38 44 51 57 65 76 67 67 68 63 66 64 56
19 18 19 18 26 29 40 41 49 45 39 41 47 68 66 75 76 78 81 80 83 74 69 73 69 61 51 44 35 34 35 35 37 51 52 60 66 81 62 63 59 59 61 61
21 23 24 20 32 28 36 39 42 44 42 46 46 56 62 64 72 77 79 80 73 77 70 73 75 69 55 40 34 34 33 34 33 43 56 56 59 64 70 64 66 60 58 61
21 24 23 26 30 24 34 45 47 38 35 47 47 67 90 73 63 69 81 83 77 70 71 72 73 74 63 45 42 38 38 37 39 43 67 55 54 74 85 67 67 54 55 54
30 24 26 27 33 26 44 44 44 37 37 35 33 46 87 64 64 66 74 83 83 82 78 69 75 74 65 53 45 45 43 42 40 42 45 49 56 63 64 68 57 60 58 58
38 31 35 38 38 33 49 40 44 41 38 31 27 38 66 67 61 66 71 80 79 80 78 72 74 72 71 60 51 46 44 44 46 43 44 46 50 51 67 67 55 59 73 65
35 35 40 40 47 41 38 33 35 39 33 26 25 43 58 55 61 64 73 78 73 71 78 78 71 76 68 66 57 54 46 45 48 48 45 46 49 51 55 60 60 51 66 64
36 39 31 33 44 42 39 34 26 24 24 22 33 51 62 61 54 64 67 65 67 60 72 75 81 82 77 73 64 55 48 44 46 49 52 48 46 44 54 59 59 71 66 83
44 39 27 22 26 33 36 34 34 29 28 25 38 46 48 54 54 60 63 60 58 61 70 83 76 75 93 73 68 65 57 50 44 47 50 53 52 50 46 47 48 50 55 52
42 40 32 24 22 30 32 32 38 29 26 25 44 52 54 56 55 59 62 65 65 68 65 71 74 84 80 76 72 68 66 60 53 48 50 53 53 54 53 49 45 41 41 45
39 37 36 28 27 27 30 38 37 36 30 27 32 62 65 54 49 54 60 61 69 68 65 73 75 90 94 87 84 94 75 67 63 53 51 50 55 58 57 53 50 47 42 40
35 34 41 35 28 24 26 29 32 35 33 33 29 62 66 63 57 52 57 57 60 67 62 63 68 67 78 84 77 88 65 89 70 60 55 53 53 55 56 55 54 50 49 43
31 37 41 44 37 30 25 27 28 33 37 35 34 58 64 63 60 53 55 56 56 56 61 60 59 62 66 73 78 78 81 72 71 74 63 56 54 56 54 56 56 56 53 48
34 39 46 45 34 34 34 30 25 26 31 38 59 63 61 60 59 54 53 52 52 53 55 60 62 66 66 71 83 86 91 91 79 64 74 67 58 57 55 53 49 54 53 50
43 46 40 41 37 33 31 28 26 27 32 42 56 73 68 60 55 52 54 53 52 51 52 52 57 59 59 62 69 75 85 88 86 81 69 61 59 56 58 60 55 53 50 57
37 46 47 38 36 33 32 30 28 28 30 37 57 68 61 62 57 52 53 51 48 49 50 48 48 48 50 52 56 58 65 76 86 82 78 66 61 63 58 55 56 57 52 51
41 40 43 46 49 40 32 28 28 29 33 41 52 61 58 57 54 53 50 46 46 44 44 44 42 42 44 46 47 49 52 55 67 83 88 83 74 70 71 71 70 69 65 58
29 38 41 38 45 39 36 33 27 27 36 38 47 51 53 50 52 54 48 45 42 41 41 41 41 41 42 42 41 44 48 48 48 56 72 83 88 84 82 84 85 86 80 75
23 29 34 38 40 39 40 31 31 30 38 38 43 46 43 42 43 55 52 45 42 38 37 36 34 34 35 36 38 39 44 46 47 46 50 59 70 84 86 84 86 85 85 78
32 31 32 33 38 42 42 35 25 23 42 46 38 43 38 40 51 57 49 48 43 38 34 30 29 28 28 27 27 28 31 37 40 43 46 48 49 57 70 80 85 82 79 77
41 42 39 37 46 47 41 32 27 37 37 39 40 36 34 34 36 39 40 36 32 33 32 32 29 28 27 22 20 21 23 27 31 35 39 43 47 50 51 65 71 77 78 80
52 50 55 47 59 52 46 39 39 40 40 38 34 32 31 29 29 30 28 29 27 27 27 27 27 29 29 30 28 22 21 21 21 26 29 35 39 44 49 46 54 67 71 76
40 45 46 49 48 50 44 37 36 31 32 31 30 29 28 29 30 32 33 33 30 29 29 28 27 28 30 29 29 31 30 24 22 21 21 25 30 35 38 46 50 49 59 69
42 40 38 38 43 42 42 34 33 32 30 28 28 29 30 29 31 32 32 31 26 26 26 25 25 20 20 22 25 30 32 31 30 24 21 19 21 27 34 37 43 48 47 50
44 46 46 43 38 37 37 36 30 29 28 30 32 31 28 28 34 34 34 31 27 26 26 27 26 24 22 21 22 24 28 28 33 32 29 25 26 25 27 32 35 39 44 47

GFSCGP_prec_cthk_090.txt.gz
RH
21 16 17 18 30 39 42 43 52 59 68 68 67 74 71 73 76 76 78 73 68 64 61 55 48 44 43 39 38 42 40 36 40 41 54 62 65 61 64 77 62 56 50 57
19 16 17 20 22 34 40 44 62 60 63 68 73 75 70 75 74 78 77 76 72 70 65 57 52 45 46 41 36 36 36 34 38 40 54 59 65 59 62 67 58 53 48 48
19 15 16 18 19 25 36 39 53 44 52 78 83 94 74 75 78 76 80 78 76 71 72 63 62 53 47 43 34 34 33 30 33 41 61 76 90 61 77 57 55 52 50 48
20 18 19 20 19 21 26 37 49 58 53 55 60 75 80 76 77 77 78 80 76 73 68 65 63 58 50 44 38 32 32 28 29 38 44 57 55 56 64 65 63 52 49 51
21 23 21 21 19 22 26 43 50 55 45 33 45 53 87 76 74 75 78 78 75 74 67 65 64 65 59 46 38 33 30 28 26 30 40 59 57 71 76 67 69 54 48 46
25 23 25 24 24 32 31 36 41 46 43 37 53 52 82 88 84 76 69 73 75 66 62 64 64 66 74 54 40 31 29 29 27 28 51 59 58 86 77 60 60 56 48 44
27 29 27 25 28 30 31 36 45 44 36 36 36 43 82 84 81 86 83 75 80 76 74 66 62 63 65 61 48 32 33 30 31 32 38 49 57 60 73 62 64 69 72 57
28 40 29 27 28 32 33 38 39 42 37 31 32 54 69 63 70 88 72 77 76 80 80 73 64 64 67 68 60 41 35 35 34 34 32 39 41 48 62 73 60 61 63 65
36 36 32 39 39 50 36 37 36 34 30 28 38 55 63 75 60 61 62 73 87 90 86 75 73 66 71 69 64 53 37 35 35 37 37 35 39 40 41 54 57 54 62 76
47 41 39 36 37 45 48 35 36 36 36 29 46 53 61 62 56 56 56 62 76 74 72 83 80 90 84 88 70 73 53 39 38 39 40 39 37 36 38 50 53 56 67 69
47 45 39 32 32 37 41 35 36 34 29 30 57 65 68 74 58 54 52 56 64 66 65 70 81 98 88 88 86 92 85 52 45 43 43 43 44 41 40 40 38 43 49 50
45 43 43 32 23 29 42 40 33 38 33 39 62 86 77 71 65 60 57 57 58 57 63 68 75 86 90 90 88 90 96 73 66 54 49 45 43 48 47 44 42 41 39 36
42 38 42 37 28 25 27 30 34 38 36 44 51 63 78 82 66 58 57 56 58 57 59 64 70 72 74 73 84 82 97 92 88 68 57 50 48 47 47 47 48 45 44 43
40 38 48 52 41 34 27 27 30 39 38 39 59 66 77 74 67 65 55 55 56 57 60 66 66 63 65 70 82 91 89 84 93 87 83 65 53 48 47 49 52 52 48 47
39 41 43 45 40 34 31 24 29 31 31 67 77 70 70 71 66 68 60 52 53 55 59 60 64 64 63 68 78 88 91 90 82 73 77 63 95 61 53 57 53 52 48 52
33 42 46 43 41 34 34 35 31 26 30 49 60 82 73 70 66 62 58 52 51 52 52 53 53 56 56 56 62 67 80 84 90 90 86 87 62 93 52 50 57 55 50 47
46 39 44 48 43 40 35 32 30 26 28 56 58 79 77 73 65 60 58 52 47 48 48 47 46 46 47 46 50 52 57 66 71 83 90 91 85 81 67 61 58 60 57 54
42 46 51 49 44 45 40 35 31 30 32 57 59 62 70 75 65 60 56 50 47 43 43 42 42 43 43 42 41 45 47 46 53 60 67 79 85 84 77 64 60 59 56 55
34 40 42 49 53 49 43 37 33 34 39 54 62 68 71 64 59 57 54 50 47 44 41 39 39 39 40 40 40 39 40 42 40 41 47 58 65 73 79 77 68 65 66 63
25 27 39 45 49 51 50 44 35 30 41 45 53 64 61 62 58 53 46 41 40 37 36 36 36 36 37 35 35 35 36 38 39 40 38 39 40 50 62 70 76 80 75 76
28 30 32 38 47 50 52 46 38 35 42 46 48 49 51 53 52 53 47 45 42 39 37 34 33 34 34 31 28 27 28 29 30 29 29 34 34 36 42 52 58 63 71 76
45 41 37 34 47 53 46 42 46 48 41 45 50 52 52 47 46 49 49 46 44 42 38 34 33 32 30 29 27 26 25 23 21 20 20 21 26 30 32 35 39 48 56 59
53 57 58 57 57 54 54 50 47 43 40 38 39 44 44 40 40 41 42 41 40 39 36 34 33 32 31 28 25 25 24 22 21 20 17 16 16 18 24 28 29 36 42 51
46 53 58 65 64 63 60 57 51 43 41 37 36 36 34 32 31 34 36 34 34 31 32 32 31 27 26 25 24 23 23 23 22 22 21 20 18 17 17 21 26 30 34 41
49 46 43 53 61 58 55 54 49 36 36 35 32 31 30 31 31 32 32 30 28 26 27 26 26 26 27 23 21 21 21 20 21 22 23 23 23 22 21 20 22 25 27 31
51 45 53 43 39 48 47 46 38 37 34 33 32 31 31 30 32 29 33 29 28 27 27 27 24 23 22 22 21 20 20 20 20 20 20 21 22 24 25 24 23 21 19 24

GFSCGP_prec_cthk_093.txt.gz
RH
20 21 22 28 33 40 47 53 59 79 72 68 76 74 74 73 77 76 69 66 62 56 49 48 46 40 36 39 38 40 37 34 38 52 59 61 62 63 61 64 65 53 52 66
22 21 16 18 26 35 42 48 75 73 72 75 93 80 76 75 74 74 73 71 68 59 56 47 44 40 39 34 36 37 35 34 34 37 53 61 54 55 64 60 56 53 54 59
21 17 15 14 19 29 39 42 61 64 75 72 85 84 84 76 75 78 76 76 76 66 58 52 47 40 38 36 31 32 34 33 33 40 52 62 76 57 69 63 56 53 53 51
19 18 19 15 18 23 33 38 47 63 62 68 62 88 84 85 81 77 80 79 78 70 62 61 54 45 39 38 36 29 31 34 32 38 45 61 66 64 66 58 56 48 52 49
18 19 22 20 16 19 30 37 49 55 57 68 75 79 76 81 86 81 77 83 81 73 69 67 61 53 51 43 36 34 25 30 30 39 45 57 56 59 68 64 54 50 49 48
18 20 22 22 19 18 30 35 51 53 57 58 60 73 90 83 84 79 80 79 83 82 78 75 68 64 54 51 39 37 29 25 27 33 36 50 55 66 83 66 68 54 51 44
19 21 24 24 24 20 30 38 49 58 62 61 47 70 72 71 76 73 81 80 83 82 81 76 70 67 61 67 51 40 28 24 25 28 31 45 56 69 69 65 67 56 56 51
27 27 25 25 25 24 38 44 50 59 52 45 42 75 65 66 72 76 71 86 82 83 76 73 73 70 68 67 65 46 32 25 25 24 33 52 57 60 66 67 70 67 79 66
42 28 28 26 24 27 37 42 36 46 45 38 58 66 66 61 67 66 66 68 87 88 85 83 79 78 75 71 65 62 42 30 27 30 31 32 41 52 56 64 63 61 67 61
51 42 37 37 29 29 40 38 43 46 46 46 66 69 73 71 68 71 70 73 80 77 76 80 87 77 78 87 70 69 58 45 32 33 36 34 36 45 48 48 57 61 56 61
54 46 44 39 37 33 35 36 39 42 44 51 72 79 79 83 79 78 79 74 69 68 69 74 80 86 87 85 90 75 69 66 58 47 40 41 41 38 42 46 51 51 57 63
43 52 53 38 33 34 44 33 38 46 47 55 67 84 88 93 87 79 77 74 71 68 71 73 74 87 87 71 99 91 85 87 75 67 59 46 41 44 45 44 43 43 41 42
47 55 56 44 35 31 35 42 32 36 44 54 61 85 86 83 86 76 75 72 71 68 64 63 64 66 66 72 81 88 98 92 86 85 65 64 54 48 52 54 47 47 44 39
50 51 59 58 45 33 27 38 33 31 46 61 62 81 87 83 82 79 78 72 70 65 61 60 60 64 71 72 75 74 86 88 86 84 81 81 73 70 58 56 53 52 50 49
49 52 51 50 43 33 28 29 35 34 52 54 64 77 86 81 79 72 75 72 67 67 65 65 67 64 68 70 67 66 71 79 83 94 85 88 75 86 72 70 68 61 61 57
44 54 49 51 43 35 30 24 29 36 49 52 58 77 80 80 77 73 74 72 66 63 66 64 64 64 60 60 64 64 65 79 81 82 84 85 85 97 85 62 77 66 64 62
41 49 56 52 47 43 38 32 28 30 44 45 63 75 90 88 79 70 72 68 62 58 56 56 55 56 57 53 52 57 60 65 77 86 84 85 96 94 87 77 83 78 67 64
44 46 50 55 52 49 42 37 31 32 48 50 57 71 76 85 76 70 63 61 59 55 52 49 49 49 47 49 48 47 48 50 59 68 75 78 83 88 89 86 86 76 68 64
40 43 48 51 53 47 47 45 39 43 56 45 54 70 71 66 70 76 68 60 58 55 52 49 45 43 44 44 44 44 44 44 42 42 48 56 61 67 75 80 83 81 68 64
23 33 41 47 60 60 52 46 44 41 59 50 51 55 62 65 65 63 63 59 53 50 47 44 42 41 38 38 39 38 36 36 36 34 34 32 32 36 44 54 60 70 82 77
33 32 32 38 57 60 52 49 45 46 65 69 56 55 58 59 61 65 57 54 49 44 41 39 38 37 35 31 29 31 30 29 27 25 25 25 26 26 28 30 36 44 53 59
46 44 37 34 44 59 50 51 53 57 57 57 67 61 56 52 51 51 50 48 47 47 44 42 40 36 33 31 29 27 25 26 24 21 19 17 17 18 19 21 23 27 33 39
56 50 54 54 56 49 47 49 57 58 56 57 55 55 52 51 52 52 50 48 44 44 44 41 37 32 30 29 28 28 26 23 21 20 19 18 18 15 14 15 17 20 24 27
50 49 55 59 64 58 56 52 48 51 53 54 53 50 52 47 46 46 45 44 41 40 37 33 31 29 27 24 22 22 21 21 20 20 21 22 21 20 19 17 17 17 19 21
54 57 50 57 64 67 66 62 58 52 52 51 46 47 48 44 43 41 38 36 33 32 31 28 27 26 24 22 20 18 16 15 14 14 15 18 20 20 21 20 20 20 22 22
63 63 61 56 57 59 60 59 57 51 44 44 41 30 33 35 35 33 32 29 28 29 26 23 20 19 19 19 19 19 17 14 14 13 13 13 13 14 15 17 18 21 23 22

GFSCGP_prec_cthk_096.txt.gz
RH
23 23 33 41 42 44 45 49 76 81 80 74 88 83 83 81 84 83 76 69 65 62 53 48 45 43 48 43 40 37 35 37 43 56 61 59 60 61 63 64 58 59 61 54
21 20 20 34 36 44 49 53 74 86 85 85 86 85 86 82 84 83 78 71 71 67 59 54 45 47 41 39 41 37 36 34 37 52 58 66 67 66 66 62 56 61 56 56
21 16 16 21 32 39 46 47 61 68 80 83 76 83 86 85 81 81 79 74 73 70 66 60 53 46 42 38 36 36 33 35 33 45 55 73 63 67 67 65 54 54 62 63
18 17 18 16 25 33 42 43 48 65 69 81 74 86 87 82 85 80 80 75 76 75 68 64 59 52 46 42 39 33 32 33 31 40 53 65 71 63 68 57 53 56 51 56
17 17 19 19 16 23 32 41 49 57 68 75 80 76 79 88 93 83 81 82 81 80 76 71 66 63 53 46 43 37 30 31 29 35 47 58 64 65 69 61 55 51 52 48
18 18 19 18 16 18 31 41 50 66 71 73 71 71 83 78 83 85 81 83 84 84 79 76 72 69 65 57 51 41 37 27 29 29 40 52 61 63 69 65 59 51 47 46
21 21 20 19 19 19 34 37 59 74 74 63 63 73 70 64 69 74 80 80 80 83 81 79 76 72 68 65 59 46 42 33 27 29 32 40 58 65 81 70 68 54 48 45
31 28 21 21 20 21 34 36 49 60 63 57 66 73 67 72 75 74 73 74 76 80 81 86 82 77 67 68 66 61 43 38 28 26 29 32 55 61 69 68 71 60 62 53
38 28 24 22 23 23 33 38 42 47 50 59 75 76 74 78 81 77 77 79 78 83 82 83 81 77 70 67 75 72 58 40 26 24 27 35 52 59 63 72 69 64 80 62
40 34 27 27 23 20 28 38 43 48 50 67 79 81 82 77 81 80 79 73 71 81 81 81 80 78 78 71 75 79 66 51 35 29 27 30 45 47 56 59 69 60 62 66
43 36 35 32 30 25 27 37 44 48 50 72 82 87 83 79 79 81 77 73 68 70 76 83 85 85 83 79 73 77 79 74 50 39 39 40 32 38 47 49 54 64 61 59
46 45 44 40 36 31 29 37 49 53 48 68 80 91 88 82 84 85 80 77 73 75 73 74 79 85 88 86 89 98 87 82 72 57 50 50 46 45 43 44 47 59 59 61
45 51 58 49 41 33 32 33 44 48 49 59 72 85 85 84 80 83 90 83 77 74 76 77 79 82 87 71 78 86 94 93 85 82 66 63 56 53 49 48 44 52 50 48
48 48 56 58 48 40 32 31 42 47 56 63 71 79 79 81 80 80 79 78 81 78 78 77 71 72 77 71 66 78 82 87 93 95 87 81 72 66 57 57 57 54 55 49
49 51 50 52 47 41 33 30 41 48 48 53 73 72 74 79 77 76 82 79 76 72 70 69 70 69 66 72 71 73 80 80 89 88 89 88 84 74 77 72 62 61 61 58
46 53 52 52 46 40 33 32 39 48 58 58 67 74 77 78 77 79 79 79 78 71 66 68 71 72 70 69 68 70 73 72 73 76 83 90 85 86 85 83 79 77 77 68
47 47 59 64 53 41 39 36 37 49 55 58 64 61 67 75 76 77 78 78 78 74 68 66 70 71 69 64 64 65 67 69 71 68 73 82 81 86 90 92 90 84 74 70
44 48 50 61 58 52 45 43 39 47 52 53 54 60 64 68 74 73 74 74 72 70 67 64 62 60 57 57 54 54 55 59 65 67 70 76 87 89 82 91 90 85 80 79
44 45 50 52 62 56 50 48 44 50 62 54 62 73 70 65 68 73 70 66 63 61 60 59 55 54 51 49 48 47 47 46 49 52 55 63 65 81 88 89 84 85 84 80
35 40 46 51 55 56 59 56 48 55 69 68 62 58 56 61 65 67 70 71 62 60 58 55 54 52 52 50 49 45 43 42 39 37 37 39 43 45 50 63 72 78 80 84
33 32 36 46 52 53 51 50 56 57 61 67 67 65 64 59 58 67 69 71 67 64 56 52 49 46 43 40 38 38 35 33 34 34 32 32 32 33 32 33 35 40 49 60
51 41 39 34 37 45 48 50 61 50 57 64 70 70 73 73 69 63 59 62 66 62 52 46 42 41 41 38 33 32 33 31 28 24 22 21 21 22 23 24 26 27 31 35
55 51 52 49 48 45 46 51 61 55 54 62 64 74 79 80 73 67 65 59 53 51 52 52 52 47 43 37 32 30 29 29 28 26 24 22 21 19 18 16 16 19 22 24
46 45 53 53 54 50 48 48 54 57 60 70 75 75 74 69 67 63 59 53 52 51 47 44 41 38 31 28 25 23 22 22 22 22 22 23 23 22 22 21 19 19 19 18
54 51 51 55 55 57 59 55 54 55 58 62 67 74 74 70 66 61 59 56 52 48 39 36 32 28 24 24 22 20 19 18 17 16 16 16 16 17 18 20 21 21 22 22
66 65 63 63 58 57 58 57 58 58 58 58 61 61 60 58 57 54 53 53 46 35 29 25 21 19 19 19 18 17 17 16 16 15 14 13 13 12 12 13 13 16 17 20